Observation data for Snyder SSW on 12/08/2018      Previous  Date       Current Mesonet Observations  Soil Data  Daily Summary Page  Observations in Plain Language
KWT1 080600Z 01010KT 00/00 A3025 RMK A01 T000000-2  RH  098%=      5-min Rain = 0
KWT1 080601Z 02012KT 00/00 A3025 RMK A01 T000000-2  RH  098%=      5-min Rain = 0
KWT1 080602Z 02013KT 00/00 A3025 RMK A01 T00-000-2  RH  098%=      5-min Rain = 0
KWT1 080603Z 02011KT 00/00 A3025 RMK A01 T000000-2  RH  098%=      5-min Rain = 0.01
KWT1 080604Z 02012KT 00/00 A3025 RMK A01 T00-000-3  RH  098%=      5-min Rain = 0
KWT1 080605Z 03013KT 00/00 A3025 RMK A01 T000000-2  RH  098%=      5-min Rain = 0
KWT1 080606Z 03014KT 00/00 A3025 RMK A01 T000000-2  RH  098%=      5-min Rain = 0
KWT1 080607Z 01012KT 00/00 A3025 RMK A01 T000000-2  RH  098%=      5-min Rain = 0.01
KWT1 080608Z 02012KT 00/00 A3025 RMK A01 T000000-2  RH  098%=      5-min Rain = 0
KWT1 080609Z 02013KT 00/00 A3025 RMK A01 T000000-2  RH  098%=      5-min Rain = 0
KWT1 080610Z 02012KT 00/00 A3025 RMK A01 T000000-2  RH  098%=      5-min Rain = 0
KWT1 080611Z 02011KT 00/00 A3025 RMK A01 T000000-3  RH  098%=      5-min Rain = 0
KWT1 080612Z 01011KT 00/00 A3025 RMK A01 T00-000-3  RH  098%=      5-min Rain = 0
KWT1 080613Z 01010KT 00/00 A3025 RMK A01 T000000-2  RH  098%=      5-min Rain = 0
KWT1 080614Z 02011KT 00/00 A3025 RMK A01 T00-000-2  RH  098%=      5-min Rain = 0
KWT1 080615Z 01009KT 00/00 A3025 RMK A01 T00-000-2  RH  098%=      5-min Rain = 0
KWT1 080616Z 02011KT 00/00 A3025 RMK A01 T00-000-2  RH  098%=      5-min Rain = 0.01
KWT1 080617Z 01010KT 00/00 A3025 RMK A01 T000000-2  RH  098%=      5-min Rain = 0
KWT1 080618Z 02012KT 00/00 A3025 RMK A01 T00-000-2  RH  098%=      5-min Rain = 0
KWT1 080619Z 02012KT 00/00 A3025 RMK A01 T000000-2  RH  098%=      5-min Rain = 0
KWT1 080620Z 03012KT 00/00 A3025 RMK A01 T000000-2  RH  098%=      5-min Rain = 0
KWT1 080621Z 02013KT 00/00 A3025 RMK A01 T000000-2  RH  098%=      5-min Rain = 0
KWT1 080622Z 02012KT 00/00 A3025 RMK A01 T00-000-2  RH  098%=      5-min Rain = 0
KWT1 080623Z 01010KT 00/00 A3025 RMK A01 T000000-2  RH  098%=      5-min Rain = 0.01
KWT1 080624Z 02010KT 00/00 A3025 RMK A01 T000000-2  RH  098%=      5-min Rain = 0
KWT1 080625Z 01011KT 00/00 A3025 RMK A01 T000000-2  RH  098%=      5-min Rain = 0
KWT1 080626Z 02013KT 00/00 A3025 RMK A01 T000000-2  RH  098%=      5-min Rain = 0
KWT1 080627Z 02013KT 00/00 A3025 RMK A01 T000000-2  RH  098%=      5-min Rain = 0
KWT1 080628Z 01013KT 00/00 A3025 RMK A01 T000000-2  RH  098%=      5-min Rain = 0
KWT1 080629Z 01011KT 00/M00 A3025 RMK A01 T00011002  RH  098%=      5-min Rain = 0
KWT1 080630Z 02012G17KT 00/00 A3025 RMK A01 T000000-2  RH  098%=      5-min Rain = 0
KWT1 080631Z 02015KT 00/M00 A3025 RMK A01 T00011001  RH  098%=      5-min Rain = 0.01
KWT1 080632Z 01012KT 00/M00 A3025 RMK A01 T00011001  RH  098%=      5-min Rain = 0
KWT1 080633Z 02012KT 00/M00 A3025 RMK A01 T00011001  RH  098%=      5-min Rain = 0
KWT1 080634Z 02012KT 00/M00 A3025 RMK A01 T00011001  RH  098%=      5-min Rain = 0
KWT1 080635Z 01010KT 00/M00 A3025 RMK A01 T00011001  RH  098%=      5-min Rain = 0
KWT1 080636Z 01013KT 00/M00 A3025 RMK A01 T00011001  RH  098%=      5-min Rain = 0
KWT1 080637Z 01013KT 00/M00 A3025 RMK A01 T00011001  RH  099%=      5-min Rain = 0
KWT1 080638Z 02012KT 00/M00 A3025 RMK A01 T00011001  RH  098%=      5-min Rain = 0
KWT1 080639Z 01010KT 00/M00 A3025 RMK A01 T00011001  RH  098%=      5-min Rain = 0.01
KWT1 080640Z 01012KT 00/M00 A3025 RMK A01 T00011001  RH  099%=      5-min Rain = 0
KWT1 080641Z 01014KT 00/M00 A3025 RMK A01 T00011001  RH  099%=      5-min Rain = 0
KWT1 080642Z 01011KT 00/M00 A3025 RMK A01 T00011001  RH  099%=      5-min Rain = 0
KWT1 080643Z 01010KT 00/M00 A3025 RMK A01 T00011001  RH  099%=      5-min Rain = 0
KWT1 080644Z 01011KT 00/M00 A3025 RMK A01 T00011001  RH  099%=      5-min Rain = 0.01
KWT1 080645Z 01011KT 00/M00 A3025 RMK A01 T00011001  RH  099%=      5-min Rain = 0
KWT1 080646Z 01012KT 00/M00 A3025 RMK A01 T00011001  RH  099%=      5-min Rain = 0
KWT1 080647Z 02010KT 00/M00 A3025 RMK A01 T00011001  RH  099%=      5-min Rain = 0.01
KWT1 080648Z 02012KT 00/M00 A3025 RMK A01 T00011001  RH  099%=      5-min Rain = 0
KWT1 080649Z 01011KT 00/M00 A3025 RMK A01 T00011001  RH  099%=      5-min Rain = 0
KWT1 080650Z 01009KT 00/M00 A3025 RMK A01 T00011001  RH  099%=      5-min Rain = 0
KWT1 080651Z 01011KT 00/M00 A3025 RMK A01 T00011001  RH  099%=      5-min Rain = 0
KWT1 080652Z 01011KT 00/M00 A3025 RMK A01 T00011001  RH  099%=      5-min Rain = 0
KWT1 080653Z 02011KT 00/M00 A3025 RMK A01 T00011001  RH  099%=      5-min Rain = 0.01
KWT1 080654Z 02014KT 00/M00 A3025 RMK A01 T00011001  RH  099%=      5-min Rain = 0
KWT1 080655Z 02013KT 00/M00 A3025 RMK A01 T00011001  RH  099%=      5-min Rain = 0
KWT1 080656Z 01011KT 00/M00 A3025 RMK A01 T00011001  RH  099%=      5-min Rain = 0
KWT1 080657Z 01012KT 00/M00 A3025 RMK A01 T00011001  RH  098%=      5-min Rain = 0
KWT1 080658Z 02011KT 00/M00 A3025 RMK A01 T00011001  RH  098%=      5-min Rain = 0
KWT1 080659Z 02010KT 00/M00 A3025 RMK A01 T00011001  RH  098%=      5-min Rain = 0
KWT1 080700Z 02011KT 00/M00 A3025 RMK A01 T00011001  RH  098%=      5-min Rain = 0
KWT1 080701Z 02009KT 00/M00 A3025 RMK A01 T00011001  RH  098%=      5-min Rain = 0
KWT1 080702Z 01010KT 00/M00 A3025 RMK A01 T00021001  RH  098%=      5-min Rain = 0
KWT1 080703Z 02012KT 00/M00 A3025 RMK A01 T00021001  RH  098%=      5-min Rain = 0.01
KWT1 080704Z 01011KT 00/M00 A3025 RMK A01 T00011001  RH  098%=      5-min Rain = 0
KWT1 080705Z 02010KT 00/M00 A3025 RMK A01 T00011001  RH  098%=      5-min Rain = 0
KWT1 080706Z 02009KT 00/M00 A3025 RMK A01 T00011001  RH  098%=      5-min Rain = 0
KWT1 080707Z 02008KT 00/00 A3025 RMK A01 T000200-0  RH  098%=      5-min Rain = 0
KWT1 080708Z 02011KT 00/00 A3025 RMK A01 T000200-0  RH  098%=      5-min Rain = 0
KWT1 080709Z 02012KT 00/00 A3025 RMK A01 T000200-0  RH  098%=      5-min Rain = 0
KWT1 080710Z 02011KT 00/00 A3025 RMK A01 T000200-0  RH  098%=      5-min Rain = 0
KWT1 080711Z 02011KT 00/00 A3025 RMK A01 T000200-0  RH  098%=      5-min Rain = 0
KWT1 080712Z 02010KT 00/00 A3025 RMK A01 T000200-0  RH  098%=      5-min Rain = 0
KWT1 080713Z 02012KT 00/00 A3025 RMK A01 T000200-0  RH  098%=      5-min Rain = 0.01
KWT1 080714Z 02011KT 00/00 A3025 RMK A01 T000200-0  RH  098%=      5-min Rain = 0
KWT1 080715Z 02013KT 00/00 A3025 RMK A01 T000200-0  RH  098%=      5-min Rain = 0
KWT1 080716Z 02012KT 00/00 A3025 RMK A01 T000200-0  RH  098%=      5-min Rain = 0
KWT1 080717Z 02012KT 00/M00 A3025 RMK A01 T00021001  RH  098%=      5-min Rain = 0
KWT1 080718Z 02011KT 00/M00 A3025 RMK A01 T00021001  RH  098%=      5-min Rain = 0
KWT1 080719Z 01011KT 00/00 A3025 RMK A01 T000200-0  RH  098%=      5-min Rain = 0
KWT1 080720Z 01011KT 00/00 A3025 RMK A01 T00020000  RH  098%=      5-min Rain = 0
KWT1 080721Z 02009KT 00/00 A3025 RMK A01 T00030000  RH  098%=      5-min Rain = 0
KWT1 080722Z 02011KT 00/00 A3025 RMK A01 T000200-0  RH  098%=      5-min Rain = 0
KWT1 080723Z 02011KT 00/00 A3025 RMK A01 T00030000  RH  098%=      5-min Rain = 0.01
KWT1 080724Z 01012KT 00/00 A3025 RMK A01 T000200-0  RH  098%=      5-min Rain = 0
KWT1 080725Z 01012KT 00/00 A3025 RMK A01 T000200-0  RH  098%=      5-min Rain = 0
KWT1 080726Z 01011KT 00/00 A3025 RMK A01 T00020000  RH  098%=      5-min Rain = 0
KWT1 080727Z 01012KT 00/00 A3025 RMK A01 T00020000  RH  098%=      5-min Rain = 0
KWT1 080728Z 01012KT 00/00 A3025 RMK A01 T000200-0  RH  098%=      5-min Rain = 0
KWT1 080729Z 01012KT 00/00 A3025 RMK A01 T00030000  RH  098%=      5-min Rain = 0
KWT1 080730Z 01014KT 00/00 A3025 RMK A01 T000200-0  RH  098%=      5-min Rain = 0
KWT1 080731Z 01015KT 00/M00 A3025 RMK A01 T00021001  RH  098%=      5-min Rain = 0
KWT1 080732Z 02013KT 00/M00 A3025 RMK A01 T00021001  RH  098%=      5-min Rain = 0
KWT1 080733Z 02013KT 00/M00 A3025 RMK A01 T00011001  RH  098%=      5-min Rain = 0
KWT1 080734Z 01012KT 00/M00 A3025 RMK A01 T00021001  RH  098%=      5-min Rain = 0
KWT1 080735Z 02012KT 00/M00 A3025 RMK A01 T00021001  RH  098%=      5-min Rain = 0.01
KWT1 080736Z 02013KT 00/M00 A3025 RMK A01 T00011001  RH  098%=      5-min Rain = 0
KWT1 080737Z 01012KT 00/M00 A3025 RMK A01 T00011001  RH  098%=      5-min Rain = 0
KWT1 080738Z 02013KT 00/M00 A3025 RMK A01 T00011001  RH  098%=      5-min Rain = 0
KWT1 080739Z 02011KT 00/M00 A3025 RMK A01 T00021001  RH  098%=      5-min Rain = 0
KWT1 080740Z 02013KT 00/M00 A3025 RMK A01 T00011001  RH  098%=      5-min Rain = 0
KWT1 080741Z 02013KT 00/M00 A3025 RMK A01 T00021001  RH  098%=      5-min Rain = 0
KWT1 080742Z 02014KT 00/M00 A3025 RMK A01 T00011001  RH  098%=      5-min Rain = 0
KWT1 080743Z 01012KT 00/M00 A3025 RMK A01 T00011001  RH  098%=      5-min Rain = 0
KWT1 080744Z 01011KT 00/M00 A3025 RMK A01 T00011001  RH  098%=      5-min Rain = 0
KWT1 080745Z 01013KT 00/M00 A3025 RMK A01 T00021001  RH  098%=      5-min Rain = 0
KWT1 080746Z 02011G16KT 00/M00 A3024 RMK A01 T00021001  RH  098%=      5-min Rain = 0
KWT1 080747Z 01013KT 00/M00 A3024 RMK A01 T00021001  RH  098%=      5-min Rain = 0
KWT1 080748Z 02015KT 00/M00 A3024 RMK A01 T00011001  RH  098%=      5-min Rain = 0
KWT1 080749Z 02010KT 00/M00 A3024 RMK A01 T00011002  RH  098%=      5-min Rain = 0
KWT1 080750Z 02014KT 00/M00 A3024 RMK A01 T00011002  RH  098%=      5-min Rain = 0.01
KWT1 080751Z 02014KT 00/M00 A3024 RMK A01 T00011002  RH  098%=      5-min Rain = 0
KWT1 080752Z 02013KT 00/M00 A3024 RMK A01 T00011002  RH  098%=      5-min Rain = 0
KWT1 080753Z 02012KT 00/M00 A3024 RMK A01 T00011001  RH  098%=      5-min Rain = 0
KWT1 080754Z 01015KT 00/M00 A3024 RMK A01 T00011002  RH  098%=      5-min Rain = 0
KWT1 080755Z 01016KT 00/M00 A3024 RMK A01 T00011002  RH  098%=      5-min Rain = 0
KWT1 080756Z 01016KT 00/M00 A3024 RMK A01 T00011002  RH  098%=      5-min Rain = 0
KWT1 080757Z 01013KT 00/M00 A3024 RMK A01 T00011002  RH  098%=      5-min Rain = 0
KWT1 080758Z 02013KT 00/M00 A3024 RMK A01 T00011002  RH  098%=      5-min Rain = 0
KWT1 080759Z 02012KT 00/M00 A3024 RMK A01 T00011002  RH  098%=      5-min Rain = 0.01
KWT1 080800Z 02011KT 00/M00 A3024 RMK A01 T00011002  RH  098%=      5-min Rain = 0
KWT1 080801Z 02013KT 00/M00 A3024 RMK A01 T00011002  RH  098%=      5-min Rain = 0
KWT1 080802Z 02014KT 00/M00 A3024 RMK A01 T00011002  RH  098%=      5-min Rain = 0
KWT1 080803Z 02013KT 00/M00 A3023 RMK A01 T00011002  RH  098%=      5-min Rain = 0
KWT1 080804Z 02014KT 00/M00 A3023 RMK A01 T00011002  RH  098%=      5-min Rain = 0.01
KWT1 080805Z 02013KT 00/M00 A3023 RMK A01 T00011002  RH  098%=      5-min Rain = 0
KWT1 080806Z 02010KT 00/M00 A3023 RMK A01 T00011002  RH  098%=      5-min Rain = 0
KWT1 080807Z 01011KT 00/M00 A3023 RMK A01 T00011002  RH  098%=      5-min Rain = 0.01
KWT1 080808Z 02014KT 00/M00 A3023 RMK A01 T00011002  RH  098%=      5-min Rain = 0
KWT1 080809Z 01012KT 00/M00 A3023 RMK A01 T00011002  RH  098%=      5-min Rain = 0
KWT1 080810Z 01012KT 00/M00 A3023 RMK A01 T00011002  RH  098%=      5-min Rain = 0
KWT1 080811Z 02011KT 00/M00 A3023 RMK A01 T00011001  RH  098%=      5-min Rain = 0
KWT1 080812Z 02009KT 00/M00 A3023 RMK A01 T00011001  RH  098%=      5-min Rain = 0
KWT1 080813Z 02009KT 00/M00 A3023 RMK A01 T00011001  RH  098%=      5-min Rain = 0
KWT1 080814Z 02011KT 00/M00 A3023 RMK A01 T00011001  RH  098%=      5-min Rain = 0
KWT1 080815Z 02014KT 00/M00 A3023 RMK A01 T00011001  RH  098%=      5-min Rain = 0
KWT1 080816Z 01013KT 00/M00 A3023 RMK A01 T00011001  RH  098%=      5-min Rain = 0
KWT1 080817Z 02012KT 00/M00 A3023 RMK A01 T00011001  RH  098%=      5-min Rain = 0.01
KWT1 080818Z 02011KT 00/M00 A3023 RMK A01 T00011001  RH  098%=      5-min Rain = 0
KWT1 080819Z 02012KT 00/M00 A3023 RMK A01 T00011001  RH  098%=      5-min Rain = 0
KWT1 080820Z 02012KT 00/M00 A3023 RMK A01 T00011001  RH  098%=      5-min Rain = 0
KWT1 080821Z 02011KT 00/M00 A3023 RMK A01 T00011001  RH  098%=      5-min Rain = 0
KWT1 080822Z 01011KT 00/M00 A3023 RMK A01 T00011001  RH  098%=      5-min Rain = 0
KWT1 080823Z 02014KT 00/M00 A3023 RMK A01 T00011001  RH  098%=      5-min Rain = 0
KWT1 080824Z 01012KT 00/M00 A3023 RMK A01 T00011001  RH  098%=      5-min Rain = 0
KWT1 080825Z 01011KT 00/M00 A3023 RMK A01 T00011001  RH  098%=      5-min Rain = 0
KWT1 080826Z 02011KT 00/M00 A3023 RMK A01 T00011001  RH  098%=      5-min Rain = 0
KWT1 080827Z 01010KT 00/M00 A3023 RMK A01 T00011001  RH  098%=      5-min Rain = 0
KWT1 080828Z 01011KT 00/M00 A3023 RMK A01 T00011001  RH  098%=      5-min Rain = 0.01
KWT1 080829Z 01012KT 00/M00 A3023 RMK A01 T00011001  RH  098%=      5-min Rain = 0
KWT1 080830Z 01011KT 00/M00 A3023 RMK A01 T00011001  RH  098%=      5-min Rain = 0
KWT1 080831Z 00010KT 00/M00 A3023 RMK A01 T00011001  RH  098%=      5-min Rain = 0
KWT1 080832Z 01013KT 00/M00 A3023 RMK A01 T00011002  RH  098%=      5-min Rain = 0
KWT1 080833Z 01013KT 00/M00 A3023 RMK A01 T00011002  RH  098%=      5-min Rain = 0
KWT1 080834Z 00013KT 00/00 A3023 RMK A01 T000000-2  RH  098%=      5-min Rain = 0
KWT1 080835Z 01011KT 00/00 A3023 RMK A01 T00-000-3  RH  098%=      5-min Rain = 0
KWT1 080836Z 01013KT 00/00 A3023 RMK A01 T00-000-3  RH  098%=      5-min Rain = 0
KWT1 080837Z 01012KT 00/00 A3023 RMK A01 T00-000-3  RH  098%=      5-min Rain = 0.01
KWT1 080838Z 02011KT 00/00 A3023 RMK A01 T00-000-3  RH  098%=      5-min Rain = 0
KWT1 080839Z 01013KT 00/00 A3023 RMK A01 T00-000-3  RH  098%=      5-min Rain = 0
KWT1 080840Z 01015KT 00/00 A3023 RMK A01 T00-000-3  RH  098%=      5-min Rain = 0
KWT1 080841Z 01014KT M00/M00 A3023 RMK A01 T10011003  RH  098%=      5-min Rain = 0
KWT1 080842Z 01011KT M00/M00 A3023 RMK A01 T10011004  RH  098%=      5-min Rain = 0
KWT1 080843Z 01014KT M00/M00 A3023 RMK A01 T10011004  RH  098%=      5-min Rain = 0
KWT1 080844Z 01015KT M00/M00 A3023 RMK A01 T10011004  RH  098%=      5-min Rain = 0
KWT1 080845Z 02011KT M00/M00 A3023 RMK A01 T10011004  RH  098%=      5-min Rain = 0
KWT1 080846Z 01011KT M00/M00 A3023 RMK A01 T10011004  RH  098%=      5-min Rain = 0
KWT1 080847Z 02012KT M00/M00 A3023 RMK A01 T10011004  RH  098%=      5-min Rain = 0
KWT1 080848Z 02013G18KT M00/M00 A3023 RMK A01 T10011004  RH  098%=      5-min Rain = 0.01
KWT1 080849Z 01014KT M00/M00 A3023 RMK A01 T10011004  RH  098%=      5-min Rain = 0
KWT1 080850Z 02012KT M00/M00 A3023 RMK A01 T10011004  RH  098%=      5-min Rain = 0
KWT1 080851Z 02011KT M00/M00 A3023 RMK A01 T10011004  RH  098%=      5-min Rain = 0
KWT1 080852Z 02012KT M00/M00 A3023 RMK A01 T10011004  RH  098%=      5-min Rain = 0
KWT1 080853Z 02014KT M00/M00 A3023 RMK A01 T10011004  RH  098%=      5-min Rain = 0
KWT1 080854Z 02016KT M00/M00 A3023 RMK A01 T10011004  RH  098%=      5-min Rain = 0
KWT1 080855Z 02012KT M00/M00 A3023 RMK A01 T10011004  RH  098%=      5-min Rain = 0
KWT1 080856Z 02013KT M00/M00 A3023 RMK A01 T10011004  RH  098%=      5-min Rain = 0
KWT1 080857Z 02013KT M00/M00 A3023 RMK A01 T10011004  RH  098%=      5-min Rain = 0
KWT1 080858Z 02016KT M00/M00 A3023 RMK A01 T10011004  RH  098%=      5-min Rain = 0
KWT1 080859Z 01015KT M00/M00 A3023 RMK A01 T10011004  RH  098%=      5-min Rain = 0
KWT1 080900Z 02015KT M00/M00 A3023 RMK A01 T10011004  RH  098%=      5-min Rain = 0
KWT1 080901Z 01014KT M00/M00 A3023 RMK A01 T10011004  RH  098%=      5-min Rain = 0
KWT1 080902Z 02014KT M00/M00 A3023 RMK A01 T10011004  RH  098%=      5-min Rain = 0
KWT1 080903Z 02014KT M00/M00 A3023 RMK A01 T10011004  RH  098%=      5-min Rain = 0
KWT1 080904Z 03011KT M00/M00 A3023 RMK A01 T10011004  RH  098%=      5-min Rain = 0
KWT1 080905Z 02013KT M00/M00 A3023 RMK A01 T10011004  RH  098%=      5-min Rain = 0
KWT1 080906Z 02011KT M00/M00 A3023 RMK A01 T10011004  RH  098%=      5-min Rain = 0
KWT1 080907Z 02013KT M00/M00 A3023 RMK A01 T10011004  RH  098%=      5-min Rain = 0
KWT1 080908Z 02014G19KT M00/M00 A3023 RMK A01 T10011004  RH  098%=      5-min Rain = 0
KWT1 080909Z 02015KT M00/M00 A3023 RMK A01 T10011004  RH  098%=      5-min Rain = 0.01
KWT1 080910Z 02015KT M00/M00 A3023 RMK A01 T10011004  RH  098%=      5-min Rain = 0
KWT1 080911Z 02015KT M00/M00 A3023 RMK A01 T10011004  RH  098%=      5-min Rain = 0
KWT1 080912Z 02012KT M00/M01 A3023 RMK A01 T10011005  RH  098%=      5-min Rain = 0
KWT1 080913Z 02014KT M00/M00 A3023 RMK A01 T10011004  RH  098%=      5-min Rain = 0
KWT1 080914Z 03014KT M00/M01 A3023 RMK A01 T10011005  RH  097%=      5-min Rain = 0
KWT1 080915Z 02013KT M00/M01 A3023 RMK A01 T10011005  RH  097%=      5-min Rain = 0
KWT1 080916Z 02010KT M00/M00 A3023 RMK A01 T10011004  RH  097%=      5-min Rain = 0
KWT1 080917Z 03011KT M00/M00 A3023 RMK A01 T10011004  RH  098%=      5-min Rain = 0
KWT1 080918Z 03012KT M00/M00 A3023 RMK A01 T10011004  RH  098%=      5-min Rain = 0
KWT1 080919Z 02011KT M00/M00 A3023 RMK A01 T10011004  RH  098%=      5-min Rain = 0
KWT1 080920Z 02010KT M00/M00 A3023 RMK A01 T10011004  RH  098%=      5-min Rain = 0
KWT1 080921Z 02011KT M00/M00 A3023 RMK A01 T10011004  RH  098%=      5-min Rain = 0
KWT1 080922Z 02012KT M00/M00 A3023 RMK A01 T10011004  RH  098%=      5-min Rain = 0
KWT1 080923Z 02014KT M00/M00 A3023 RMK A01 T10011004  RH  098%=      5-min Rain = 0
KWT1 080924Z 03012KT M00/M00 A3023 RMK A01 T10011004  RH  098%=      5-min Rain = 0
KWT1 080925Z 03011KT M00/M00 A3023 RMK A01 T10011004  RH  098%=      5-min Rain = 0
KWT1 080926Z 03010KT M00/M00 A3023 RMK A01 T10011004  RH  098%=      5-min Rain = 0
KWT1 080927Z 02012KT M00/M00 A3023 RMK A01 T10011004  RH  098%=      5-min Rain = 0
KWT1 080928Z 02012KT M00/M00 A3023 RMK A01 T10011004  RH  098%=      5-min Rain = 0
KWT1 080929Z 02012KT M00/M00 A3023 RMK A01 T10011004  RH  098%=      5-min Rain = 0
KWT1 080930Z 02011KT M00/M00 A3023 RMK A01 T10011004  RH  098%=      5-min Rain = 0
KWT1 080931Z 02013KT M00/M00 A3023 RMK A01 T10011004  RH  098%=      5-min Rain = 0
KWT1 080932Z 02016KT M00/M00 A3023 RMK A01 T10011004  RH  098%=      5-min Rain = 0
KWT1 080933Z 02015KT M00/M00 A3023 RMK A01 T10011004  RH  098%=      5-min Rain = 0
KWT1 080934Z 02014KT M00/M00 A3023 RMK A01 T10011004  RH  098%=      5-min Rain = 0
KWT1 080935Z 02013KT M00/M00 A3023 RMK A01 T10011004  RH  098%=      5-min Rain = 0
KWT1 080936Z 02011KT M00/M00 A3023 RMK A01 T10011004  RH  098%=      5-min Rain = 0
KWT1 080937Z 03012KT M00/M00 A3023 RMK A01 T10011004  RH  098%=      5-min Rain = 0
KWT1 080938Z 03014KT M00/M00 A3023 RMK A01 T10011004  RH  098%=      5-min Rain = 0.01
KWT1 080939Z 02011KT M00/M00 A3023 RMK A01 T10011004  RH  098%=      5-min Rain = 0
KWT1 080940Z 02010KT M00/M00 A3023 RMK A01 T10011004  RH  098%=      5-min Rain = 0
KWT1 080941Z 02011KT M00/M00 A3023 RMK A01 T10011004  RH  098%=      5-min Rain = 0
KWT1 080942Z 02012KT M00/M00 A3023 RMK A01 T10011004  RH  098%=      5-min Rain = 0
KWT1 080943Z 03013KT M00/M00 A3023 RMK A01 T10011004  RH  098%=      5-min Rain = 0
KWT1 080944Z 02012KT M00/M00 A3023 RMK A01 T10011004  RH  098%=      5-min Rain = 0
KWT1 080945Z 02013KT M00/M00 A3023 RMK A01 T10011004  RH  098%=      5-min Rain = 0.01
KWT1 080946Z 03014KT M00/M00 A3023 RMK A01 T10011004  RH  098%=      5-min Rain = 0
KWT1 080947Z 02012KT M00/M00 A3023 RMK A01 T10011004  RH  098%=      5-min Rain = 0
KWT1 080948Z 03012KT M00/M00 A3023 RMK A01 T10011003  RH  098%=      5-min Rain = 0
KWT1 080949Z 02012KT M00/M00 A3023 RMK A01 T10011003  RH  098%=      5-min Rain = 0
KWT1 080950Z 02011KT M00/M00 A3023 RMK A01 T10011004  RH  098%=      5-min Rain = 0.01
KWT1 080951Z 02013KT M00/M00 A3023 RMK A01 T10011003  RH  098%=      5-min Rain = 0
KWT1 080952Z 02010KT M00/M00 A3023 RMK A01 T10011004  RH  098%=      5-min Rain = 0
KWT1 080953Z 02012KT M00/M00 A3023 RMK A01 T10011003  RH  098%=      5-min Rain = 0
KWT1 080954Z 01013KT M00/M00 A3023 RMK A01 T10011004  RH  098%=      5-min Rain = 0
KWT1 080955Z 02014KT M00/M00 A3023 RMK A01 T10011004  RH  098%=      5-min Rain = 0
KWT1 080956Z 02015KT M00/M00 A3023 RMK A01 T10021004  RH  098%=      5-min Rain = 0
KWT1 080957Z 02012KT M00/M00 A3023 RMK A01 T10021004  RH  098%=      5-min Rain = 0
KWT1 080958Z 02012KT M00/M00 A3023 RMK A01 T10021004  RH  098%=      5-min Rain = 0
KWT1 080959Z 03013KT M00/M00 A3023 RMK A01 T10021004  RH  098%=      5-min Rain = 0
KWT1 081000Z 02011KT M00/M00 A3023 RMK A01 T10021004  RH  098%=      5-min Rain = 0.01
KWT1 081001Z 02011KT M00/M00 A3023 RMK A01 T10021004  RH  098%=      5-min Rain = 0
KWT1 081002Z 02010KT M00/M00 A3023 RMK A01 T10021004  RH  098%=      5-min Rain = 0
KWT1 081003Z 02009KT M00/M00 A3023 RMK A01 T10021004  RH  098%=      5-min Rain = 0
KWT1 081004Z 01012KT M00/M00 A3023 RMK A01 T10021004  RH  098%=      5-min Rain = 0
KWT1 081005Z 02011KT M00/M00 A3023 RMK A01 T10021004  RH  098%=      5-min Rain = 0
KWT1 081006Z 02009KT M00/M00 A3023 RMK A01 T10021004  RH  098%=      5-min Rain = 0
KWT1 081007Z 02011KT M00/M00 A3023 RMK A01 T10021004  RH  098%=      5-min Rain = 0
KWT1 081008Z 02013KT M00/M00 A3023 RMK A01 T10021004  RH  098%=      5-min Rain = 0
KWT1 081009Z 01011KT M00/M00 A3023 RMK A01 T10021004  RH  098%=      5-min Rain = 0
KWT1 081010Z 02011KT M00/M00 A3023 RMK A01 T10021004  RH  098%=      5-min Rain = 0
KWT1 081011Z 02009KT M00/M00 A3023 RMK A01 T10011004  RH  098%=      5-min Rain = 0
KWT1 081012Z 02009KT M00/M00 A3023 RMK A01 T10011004  RH  098%=      5-min Rain = 0
KWT1 081013Z 02010KT M00/M00 A3023 RMK A01 T10011004  RH  098%=      5-min Rain = 0
KWT1 081014Z 02010KT M00/M00 A3024 RMK A01 T10011004  RH  098%=      5-min Rain = 0
KWT1 081015Z 02008KT M00/M00 A3024 RMK A01 T10011004  RH  098%=      5-min Rain = 0
KWT1 081016Z 02009KT M00/M00 A3024 RMK A01 T10011004  RH  098%=      5-min Rain = 0
KWT1 081017Z 02008KT M00/M00 A3024 RMK A01 T10011004  RH  098%=      5-min Rain = 0
KWT1 081018Z 02009KT M00/M00 A3024 RMK A01 T10011004  RH  098%=      5-min Rain = 0
KWT1 081019Z 02010KT M00/M00 A3024 RMK A01 T10011004  RH  098%=      5-min Rain = 0
KWT1 081020Z 02008KT M00/M00 A3024 RMK A01 T10011004  RH  098%=      5-min Rain = 0
KWT1 081021Z 02010KT M00/M00 A3024 RMK A01 T10011004  RH  098%=      5-min Rain = 0
KWT1 081022Z 01010KT M00/M00 A3024 RMK A01 T10011004  RH  098%=      5-min Rain = 0
KWT1 081023Z 01010KT M00/M00 A3024 RMK A01 T10011004  RH  098%=      5-min Rain = 0
KWT1 081024Z 02011KT M00/M00 A3024 RMK A01 T10011004  RH  098%=      5-min Rain = 0
KWT1 081025Z 02009KT M00/M00 A3024 RMK A01 T10011004  RH  098%=      5-min Rain = 0
KWT1 081026Z 02010KT M00/M00 A3024 RMK A01 T10011004  RH  098%=      5-min Rain = 0
KWT1 081027Z 02012KT M00/M00 A3024 RMK A01 T10011004  RH  098%=      5-min Rain = 0
KWT1 081028Z 02011KT M00/M00 A3023 RMK A01 T10021004  RH  098%=      5-min Rain = 0
KWT1 081029Z 02010KT M00/M00 A3023 RMK A01 T10011004  RH  098%=      5-min Rain = 0
KWT1 081030Z 02009KT M00/M00 A3023 RMK A01 T10011004  RH  098%=      5-min Rain = 0
KWT1 081031Z 02010KT M00/M00 A3023 RMK A01 T10011004  RH  098%=      5-min Rain = 0
KWT1 081032Z 01011KT M00/M00 A3023 RMK A01 T10011004  RH  098%=      5-min Rain = 0
KWT1 081033Z 02009KT M00/M00 A3023 RMK A01 T10011004  RH  098%=      5-min Rain = 0
KWT1 081034Z 02009KT M00/M00 A3023 RMK A01 T10011004  RH  098%=      5-min Rain = 0
KWT1 081035Z 02010KT M00/M00 A3023 RMK A01 T10011004  RH  098%=      5-min Rain = 0
KWT1 081036Z 02011KT M00/M00 A3023 RMK A01 T10011004  RH  098%=      5-min Rain = 0
KWT1 081037Z 02010KT M00/M00 A3023 RMK A01 T10011004  RH  098%=      5-min Rain = 0.01
KWT1 081038Z 02009KT M00/M00 A3023 RMK A01 T10011004  RH  098%=      5-min Rain = 0
KWT1 081039Z 02009KT M00/M00 A3023 RMK A01 T10011004  RH  098%=      5-min Rain = 0
KWT1 081040Z 02009KT M00/M00 A3023 RMK A01 T10011004  RH  098%=      5-min Rain = 0
KWT1 081041Z 02009KT M00/M00 A3023 RMK A01 T10011004  RH  098%=      5-min Rain = 0
KWT1 081042Z 03009KT M00/M00 A3023 RMK A01 T10011004  RH  098%=      5-min Rain = 0
KWT1 081043Z 02009KT M00/M00 A3023 RMK A01 T10011004  RH  098%=      5-min Rain = 0
KWT1 081044Z 02007KT M00/M00 A3023 RMK A01 T10011004  RH  098%=      5-min Rain = 0
KWT1 081045Z 01008KT M00/M00 A3023 RMK A01 T10011004  RH  098%=      5-min Rain = 0
KWT1 081046Z 02007KT M00/M00 A3023 RMK A01 T10011004  RH  098%=      5-min Rain = 0
KWT1 081047Z 02010KT M00/M00 A3023 RMK A01 T10011004  RH  098%=      5-min Rain = 0
KWT1 081048Z 01008KT M00/M00 A3023 RMK A01 T10011003  RH  098%=      5-min Rain = 0
KWT1 081049Z 01008KT M00/M00 A3023 RMK A01 T10011003  RH  098%=      5-min Rain = 0.01
KWT1 081050Z 02009KT M00/M00 A3023 RMK A01 T10011003  RH  098%=      5-min Rain = 0
KWT1 081051Z 01009KT M00/M00 A3023 RMK A01 T10011003  RH  098%=      5-min Rain = 0
KWT1 081052Z 02010KT M00/M00 A3023 RMK A01 T10011003  RH  098%=      5-min Rain = 0
KWT1 081053Z 02009KT M00/M00 A3023 RMK A01 T10011003  RH  098%=      5-min Rain = 0
KWT1 081054Z 02009KT M00/M00 A3023 RMK A01 T10011003  RH  098%=      5-min Rain = 0
KWT1 081055Z 02009KT M00/M00 A3023 RMK A01 T10011003  RH  098%=      5-min Rain = 0.01
KWT1 081056Z 02008KT M00/M00 A3023 RMK A01 T10011003  RH  098%=      5-min Rain = 0
KWT1 081057Z 02011KT M00/M00 A3023 RMK A01 T10011003  RH  098%=      5-min Rain = 0
KWT1 081058Z 02010KT M00/M00 A3023 RMK A01 T10011003  RH  098%=      5-min Rain = 0
KWT1 081059Z 02010KT M00/M00 A3023 RMK A01 T10011003  RH  098%=      5-min Rain = 0.01
KWT1 081100Z 01012KT M00/M00 A3023 RMK A01 T10011003  RH  098%=      5-min Rain = 0
KWT1 081101Z 01011KT M00/M00 A3023 RMK A01 T10011003  RH  098%=      5-min Rain = 0
KWT1 081102Z 02010KT M00/M00 A3023 RMK A01 T10011004  RH  098%=      5-min Rain = 0
KWT1 081103Z 02011KT M00/M00 A3023 RMK A01 T10011004  RH  098%=      5-min Rain = 0
KWT1 081104Z 02012KT M00/M00 A3023 RMK A01 T10021004  RH  098%=      5-min Rain = 0.01
KWT1 081105Z 02013KT M00/M00 A3023 RMK A01 T10011004  RH  098%=      5-min Rain = 0
KWT1 081106Z 02014KT M00/M00 A3023 RMK A01 T10011004  RH  098%=      5-min Rain = 0
KWT1 081107Z 01014KT M00/M00 A3023 RMK A01 T10021004  RH  098%=      5-min Rain = 0
KWT1 081108Z 02010KT M00/M01 A3023 RMK A01 T10021005  RH  098%=      5-min Rain = 0
KWT1 081109Z 01011KT M00/M01 A3023 RMK A01 T10021005  RH  098%=      5-min Rain = 0
KWT1 081110Z 02012KT M00/M01 A3023 RMK A01 T10021005  RH  098%=      5-min Rain = 0
KWT1 081111Z 03014KT M00/M00 A3023 RMK A01 T10011004  RH  098%=      5-min Rain = 0
KWT1 081112Z 02011KT M00/M00 A3023 RMK A01 T10011004  RH  098%=      5-min Rain = 0.01
KWT1 081113Z 02013KT M00/M00 A3023 RMK A01 T10021004  RH  098%=      5-min Rain = 0
KWT1 081114Z 02010KT M00/M00 A3023 RMK A01 T10021004  RH  098%=      5-min Rain = 0
KWT1 081115Z 02011KT M00/M00 A3023 RMK A01 T10011004  RH  098%=      5-min Rain = 0
KWT1 081116Z 02010KT M00/M00 A3023 RMK A01 T10011004  RH  098%=      5-min Rain = 0
KWT1 081117Z 02011KT M00/M00 A3023 RMK A01 T10011004  RH  098%=      5-min Rain = 0
KWT1 081118Z 02011KT M00/M00 A3023 RMK A01 T10021004  RH  098%=      5-min Rain = 0
KWT1 081119Z 02011KT M00/M00 A3023 RMK A01 T10021004  RH  098%=      5-min Rain = 0
KWT1 081120Z 02013KT M00/M00 A3023 RMK A01 T10021004  RH  098%=      5-min Rain = 0
KWT1 081121Z 02010KT M00/M00 A3023 RMK A01 T10011004  RH  098%=      5-min Rain = 0
KWT1 081122Z 02010KT M00/M00 A3023 RMK A01 T10011004  RH  098%=      5-min Rain = 0.01
KWT1 081123Z 02010KT M00/M00 A3023 RMK A01 T10011004  RH  098%=      5-min Rain = 0
KWT1 081124Z 02011KT M00/M00 A3023 RMK A01 T10011004  RH  098%=      5-min Rain = 0
KWT1 081125Z 02012KT M00/M00 A3023 RMK A01 T10011004  RH  098%=      5-min Rain = 0
KWT1 081126Z 03012KT M00/M00 A3023 RMK A01 T10011004  RH  098%=      5-min Rain = 0.01
KWT1 081127Z 03012KT M00/M00 A3023 RMK A01 T10011004  RH  098%=      5-min Rain = 0
KWT1 081128Z 03010KT M00/M00 A3023 RMK A01 T10011004  RH  098%=      5-min Rain = 0
KWT1 081129Z 02011KT M00/M00 A3023 RMK A01 T10011004  RH  098%=      5-min Rain = 0
KWT1 081130Z 02012KT M00/M00 A3023 RMK A01 T10011004  RH  098%=      5-min Rain = 0
KWT1 081131Z 02013KT M00/M00 A3023 RMK A01 T10011004  RH  098%=      5-min Rain = 0.01
KWT1 081132Z 02013KT M00/M00 A3023 RMK A01 T10011004  RH  098%=      5-min Rain = 0
KWT1 081133Z 02011KT M00/M00 A3023 RMK A01 T10011004  RH  098%=      5-min Rain = 0
KWT1 081134Z 03010KT M00/M00 A3023 RMK A01 T10011004  RH  098%=      5-min Rain = 0
KWT1 081135Z 02012KT M00/M00 A3023 RMK A01 T10011004  RH  098%=      5-min Rain = 0
KWT1 081136Z 02012KT M00/M00 A3023 RMK A01 T10011004  RH  098%=      5-min Rain = 0
KWT1 081137Z 02011KT M00/M00 A3023 RMK A01 T10011003  RH  098%=      5-min Rain = 0
KWT1 081138Z 02010KT M00/M00 A3023 RMK A01 T10011003  RH  098%=      5-min Rain = 0
KWT1 081139Z 02011KT M00/M00 A3023 RMK A01 T10011004  RH  098%=      5-min Rain = 0.01
KWT1 081140Z 02012KT M00/M00 A3023 RMK A01 T10011003  RH  098%=      5-min Rain = 0
KWT1 081141Z 02012KT M00/M00 A3023 RMK A01 T10011003  RH  098%=      5-min Rain = 0
KWT1 081142Z 02009KT M00/M00 A3023 RMK A01 T10011003  RH  098%=      5-min Rain = 0
KWT1 081143Z 03009KT M00/M00 A3023 RMK A01 T10011003  RH  098%=      5-min Rain = 0
KWT1 081144Z 03011KT M00/M00 A3023 RMK A01 T10011004  RH  098%=      5-min Rain = 0
KWT1 081145Z 02012KT M00/M00 A3023 RMK A01 T10011003  RH  098%=      5-min Rain = 0
KWT1 081146Z 02010KT M00/M00 A3024 RMK A01 T10011004  RH  098%=      5-min Rain = 0
KWT1 081147Z 02009KT M00/M00 A3023 RMK A01 T10011003  RH  098%=      5-min Rain = 0.01
KWT1 081148Z 02010KT M00/M00 A3024 RMK A01 T10011003  RH  098%=      5-min Rain = 0
KWT1 081149Z 02011KT M00/M00 A3024 RMK A01 T10011003  RH  098%=      5-min Rain = 0
KWT1 081150Z 01012KT 00/00 A3024 RMK A01 T00-000-3  RH  098%=      5-min Rain = 0
KWT1 081151Z 02012KT 00/00 A3024 RMK A01 T00-000-3  RH  098%=      5-min Rain = 0
KWT1 081152Z 02012KT M00/M00 A3024 RMK A01 T10011003  RH  098%=      5-min Rain = 0
KWT1 081153Z 01009KT 00/00 A3024 RMK A01 T00-000-3  RH  098%=      5-min Rain = 0.01
KWT1 081154Z 02010KT 00/00 A3024 RMK A01 T00-000-3  RH  098%=      5-min Rain = 0
KWT1 081155Z 02011KT 00/00 A3024 RMK A01 T00-000-3  RH  098%=      5-min Rain = 0
KWT1 081156Z 02010KT M00/M00 A3024 RMK A01 T10011003  RH  098%=      5-min Rain = 0
KWT1 081157Z 02011KT M00/M00 A3024 RMK A01 T10011003  RH  098%=      5-min Rain = 0
KWT1 081158Z 02009KT M00/M00 A3024 RMK A01 T10011003  RH  098%=      5-min Rain = 0
KWT1 081159Z 01010KT M00/M00 A3024 RMK A01 T10011003  RH  098%=      5-min Rain = 0
KWT1 081200Z 01011KT M00/M00 A3024 RMK A01 T10011003  RH  098%=      5-min Rain = 0
KWT1 081201Z 01011KT 00/00 A3024 RMK A01 T00-000-3  RH  098%=      5-min Rain = 0
KWT1 081202Z 02011KT 00/00 A3024 RMK A01 T00-000-3  RH  098%=      5-min Rain = 0.01
KWT1 081203Z 02009KT 00/00 A3024 RMK A01 T00-000-3  RH  098%=      5-min Rain = 0
KWT1 081204Z 02010KT 00/00 A3024 RMK A01 T00-000-3  RH  098%=      5-min Rain = 0
KWT1 081205Z 02009KT 00/00 A3025 RMK A01 T00-000-3  RH  098%=      5-min Rain = 0
KWT1 081206Z 02009KT 00/00 A3025 RMK A01 T00-000-3  RH  098%=      5-min Rain = 0
KWT1 081207Z 02007KT 00/00 A3025 RMK A01 T00-000-3  RH  098%=      5-min Rain = 0
KWT1 081208Z 02009KT 00/00 A3025 RMK A01 T00-000-3  RH  098%=      5-min Rain = 0
KWT1 081209Z 02011KT M00/M00 A3025 RMK A01 T10011003  RH  098%=      5-min Rain = 0
KWT1 081210Z 02012KT 00/00 A3025 RMK A01 T00-000-3  RH  098%=      5-min Rain = 0
KWT1 081211Z 02010KT M00/M00 A3025 RMK A01 T10011003  RH  098%=      5-min Rain = 0
KWT1 081212Z 02010KT 00/00 A3025 RMK A01 T00-000-3  RH  098%=      5-min Rain = 0
KWT1 081213Z 02010KT M00/M00 A3025 RMK A01 T10011003  RH  098%=      5-min Rain = 0
KWT1 081214Z 02010KT 00/00 A3025 RMK A01 T00-000-3  RH  098%=      5-min Rain = 0
KWT1 081215Z 02009KT 00/00 A3025 RMK A01 T00-000-3  RH  098%=      5-min Rain = 0
KWT1 081216Z 02009KT 00/00 A3025 RMK A01 T00-000-3  RH  098%=      5-min Rain = 0
KWT1 081217Z 03011KT 00/00 A3025 RMK A01 T00-000-3  RH  098%=      5-min Rain = 0
KWT1 081218Z 02009KT M00/M00 A3025 RMK A01 T10011003  RH  098%=      5-min Rain = 0
KWT1 081219Z 02010KT 00/00 A3025 RMK A01 T00-000-3  RH  098%=      5-min Rain = 0
KWT1 081220Z 03010G15KT M00/M00 A3025 RMK A01 T10011003  RH  098%=      5-min Rain = 0
KWT1 081221Z 03010KT M00/M00 A3025 RMK A01 T10011003  RH  098%=      5-min Rain = 0
KWT1 081222Z 03010KT 00/00 A3025 RMK A01 T00-000-3  RH  098%=      5-min Rain = 0
KWT1 081223Z 02010KT M00/M00 A3025 RMK A01 T10011003  RH  098%=      5-min Rain = 0
KWT1 081224Z 03011KT M00/M00 A3025 RMK A01 T10011003  RH  098%=      5-min Rain = 0
KWT1 081225Z 02011KT 00/00 A3025 RMK A01 T00-000-3  RH  098%=      5-min Rain = 0
KWT1 081226Z 02011KT 00/00 A3025 RMK A01 T00-000-3  RH  098%=      5-min Rain = 0
KWT1 081227Z 02010KT 00/00 A3025 RMK A01 T00-000-3  RH  098%=      5-min Rain = 0
KWT1 081228Z 02009KT 00/00 A3025 RMK A01 T00-000-3  RH  098%=      5-min Rain = 0
KWT1 081229Z 03009KT 00/00 A3025 RMK A01 T00-000-3  RH  098%=      5-min Rain = 0
KWT1 081230Z 02011KT 00/00 A3025 RMK A01 T00-000-3  RH  098%=      5-min Rain = 0
KWT1 081231Z 02010KT M00/M00 A3025 RMK A01 T10011003  RH  098%=      5-min Rain = 0
KWT1 081232Z 02009KT M00/M00 A3025 RMK A01 T10011003  RH  098%=      5-min Rain = 0
KWT1 081233Z 02010KT M00/M00 A3025 RMK A01 T10011003  RH  098%=      5-min Rain = 0
KWT1 081234Z 02009KT M00/M00 A3025 RMK A01 T10011003  RH  098%=      5-min Rain = 0
KWT1 081235Z 02009KT M00/M00 A3025 RMK A01 T10011003  RH  098%=      5-min Rain = 0
KWT1 081236Z 02008KT M00/M00 A3025 RMK A01 T10011003  RH  099%=      5-min Rain = 0
KWT1 081237Z 02009KT M00/M00 A3025 RMK A01 T10011003  RH  099%=      5-min Rain = 0
KWT1 081238Z 02008KT M00/M00 A3025 RMK A01 T10011003  RH  099%=      5-min Rain = 0
KWT1 081239Z 02008KT M00/M00 A3025 RMK A01 T10011003  RH  099%=      5-min Rain = 0
KWT1 081240Z 02010KT M00/M00 A3025 RMK A01 T10011003  RH  099%=      5-min Rain = 0
KWT1 081241Z 02010KT M00/M00 A3025 RMK A01 T10011003  RH  099%=      5-min Rain = 0
KWT1 081242Z 01011KT M00/M00 A3025 RMK A01 T10011003  RH  099%=      5-min Rain = 0
KWT1 081243Z 02010KT M00/M00 A3025 RMK A01 T10011003  RH  099%=      5-min Rain = 0
KWT1 081244Z 01011KT M00/M00 A3025 RMK A01 T10011003  RH  099%=      5-min Rain = 0
KWT1 081245Z 01011KT M00/M00 A3025 RMK A01 T10021004  RH  099%=      5-min Rain = 0
KWT1 081246Z 02009KT M00/M00 A3026 RMK A01 T10021004  RH  099%=      5-min Rain = 0
KWT1 081247Z 02009KT M00/M00 A3026 RMK A01 T10021004  RH  099%=      5-min Rain = 0
KWT1 081248Z 02008KT M00/M00 A3026 RMK A01 T10021004  RH  099%=      5-min Rain = 0
KWT1 081249Z 02009KT M00/M00 A3026 RMK A01 T10021004  RH  099%=      5-min Rain = 0
KWT1 081250Z 02009KT M00/M00 A3026 RMK A01 T10021004  RH  099%=      5-min Rain = 0
KWT1 081251Z 01009KT M00/M00 A3026 RMK A01 T10021004  RH  099%=      5-min Rain = 0
KWT1 081252Z 02010KT M00/M00 A3026 RMK A01 T10021004  RH  099%=      5-min Rain = 0
KWT1 081253Z 01010KT M00/M00 A3026 RMK A01 T10021004  RH  099%=      5-min Rain = 0
KWT1 081254Z 02008KT M00/M00 A3026 RMK A01 T10021004  RH  099%=      5-min Rain = 0
KWT1 081255Z 02008KT M00/M00 A3026 RMK A01 T10021004  RH  099%=      5-min Rain = 0
KWT1 081256Z 01008KT M00/M00 A3026 RMK A01 T10021004  RH  099%=      5-min Rain = 0
KWT1 081257Z 02008KT M00/M00 A3026 RMK A01 T10021004  RH  099%=      5-min Rain = 0
KWT1 081258Z 01009KT M00/M00 A3026 RMK A01 T10021004  RH  099%=      5-min Rain = 0
KWT1 081259Z 01009KT M00/M00 A3026 RMK A01 T10021004  RH  099%=      5-min Rain = 0
KWT1 081300Z 02009KT M00/M00 A3026 RMK A01 T10021004  RH  099%=      5-min Rain = 0
KWT1 081301Z 01009KT M00/M00 A3026 RMK A01 T10021004  RH  099%=      5-min Rain = 0
KWT1 081302Z 01008KT M00/M00 A3026 RMK A01 T10031004  RH  099%=      5-min Rain = 0
KWT1 081303Z 01009KT M00/M00 A3026 RMK A01 T10031004  RH  099%=      5-min Rain = 0
KWT1 081304Z 01008KT M00/M00 A3027 RMK A01 T10031004  RH  099%=      5-min Rain = 0
KWT1 081305Z 01008KT M00/M00 A3027 RMK A01 T10031004  RH  099%=      5-min Rain = 0
KWT1 081306Z 02010KT M00/M00 A3027 RMK A01 T10031004  RH  099%=      5-min Rain = 0
KWT1 081307Z 02009KT M00/M00 A3027 RMK A01 T10021004  RH  099%=      5-min Rain = 0
KWT1 081308Z 01009KT M00/M01 A3027 RMK A01 T10031005  RH  099%=      5-min Rain = 0
KWT1 081309Z 01009KT M00/M01 A3027 RMK A01 T10031005  RH  099%=      5-min Rain = 0
KWT1 081310Z 01009KT M00/M00 A3027 RMK A01 T10031004  RH  099%=      5-min Rain = 0
KWT1 081311Z 01008KT M00/M01 A3027 RMK A01 T10031005  RH  099%=      5-min Rain = 0
KWT1 081312Z 01007KT M00/M01 A3027 RMK A01 T10031005  RH  099%=      5-min Rain = 0
KWT1 081313Z 01010KT M00/M01 A3027 RMK A01 T10041005  RH  099%=      5-min Rain = 0
KWT1 081314Z 01010KT M00/M01 A3027 RMK A01 T10041005  RH  099%=      5-min Rain = 0
KWT1 081315Z 01009KT M00/M01 A3027 RMK A01 T10041005  RH  099%=      5-min Rain = 0
KWT1 081316Z 00009KT M00/M01 A3027 RMK A01 T10041005  RH  099%=      5-min Rain = 0
KWT1 081317Z 01008KT M00/M01 A3027 RMK A01 T10041005  RH  099%=      5-min Rain = 0
KWT1 081318Z 01007KT M00/M01 A3027 RMK A01 T10041005  RH  099%=      5-min Rain = 0
KWT1 081319Z 01007KT M00/M01 A3027 RMK A01 T10041005  RH  099%=      5-min Rain = 0
KWT1 081320Z 01008KT M00/M01 A3027 RMK A01 T10041005  RH  099%=      5-min Rain = 0
KWT1 081321Z 01009KT M00/M01 A3028 RMK A01 T10041005  RH  099%=      5-min Rain = 0
KWT1 081322Z 01009KT M00/M01 A3028 RMK A01 T10041005  RH  099%=      5-min Rain = 0
KWT1 081323Z 35008KT M00/M01 A3028 RMK A01 T10041005  RH  099%=      5-min Rain = 0
KWT1 081324Z 01008KT M00/M01 A3028 RMK A01 T10041005  RH  099%=      5-min Rain = 0
KWT1 081325Z 00009KT M00/M01 A3028 RMK A01 T10041005  RH  099%=      5-min Rain = 0
KWT1 081326Z 00009KT M01/M01 A3028 RMK A01 T10051005  RH  099%=      5-min Rain = 0
KWT1 081327Z 01009KT M01/M01 A3028 RMK A01 T10051005  RH  099%=      5-min Rain = 0
KWT1 081328Z 01009KT M01/M01 A3028 RMK A01 T10051006  RH  099%=      5-min Rain = 0
KWT1 081329Z 01007KT M01/M01 A3028 RMK A01 T10051005  RH  099%=      5-min Rain = 0
KWT1 081330Z 00008KT M01/M01 A3028 RMK A01 T10051006  RH  100%=      5-min Rain = 0
KWT1 081331Z 00009KT M01/M01 A3028 RMK A01 T10051006  RH  100%=      5-min Rain = 0
KWT1 081332Z 01009KT M01/M01 A3028 RMK A01 T10051006  RH  100%=      5-min Rain = 0
KWT1 081333Z 01009KT M01/M01 A3028 RMK A01 T10051006  RH  100%=      5-min Rain = 0
KWT1 081334Z 01009KT M01/M01 A3028 RMK A01 T10051006  RH  100%=      5-min Rain = 0
KWT1 081335Z 01009KT M01/M01 A3028 RMK A01 T10051006  RH  100%=      5-min Rain = 0
KWT1 081336Z 01009KT M01/M01 A3028 RMK A01 T10051006  RH  100%=      5-min Rain = 0
KWT1 081337Z 01008KT M01/M01 A3028 RMK A01 T10061006  RH  100%=      5-min Rain = 0
KWT1 081338Z 01010KT M01/M01 A3028 RMK A01 T10061006  RH  100%=      5-min Rain = 0
KWT1 081339Z 01009KT M01/M01 A3028 RMK A01 T10051006  RH  100%=      5-min Rain = 0
KWT1 081340Z 01009KT M01/M01 A3028 RMK A01 T10061007  RH  100%=      5-min Rain = 0
KWT1 081341Z 01009KT M01/M01 A3028 RMK A01 T10061006  RH  100%=      5-min Rain = 0
KWT1 081342Z 01010KT M01/M01 A3028 RMK A01 T10061006  RH  100%=      5-min Rain = 0
KWT1 081343Z 01009KT M01/M01 A3028 RMK A01 T10061006  RH  100%=      5-min Rain = 0
KWT1 081344Z 00008KT M01/M01 A3028 RMK A01 T10061006  RH  100%=      5-min Rain = 0
KWT1 081345Z 00008KT M01/M01 A3028 RMK A01 T10061006  RH  100%=      5-min Rain = 0
KWT1 081346Z 00009KT M01/M01 A3028 RMK A01 T10061006  RH  100%=      5-min Rain = 0
KWT1 081347Z 01008KT M01/M01 A3028 RMK A01 T10061006  RH  100%=      5-min Rain = 0
KWT1 081348Z 01009KT M01/M01 A3028 RMK A01 T10061007  RH  100%=      5-min Rain = 0
KWT1 081349Z 01010KT M01/M01 A3028 RMK A01 T10071007  RH  100%=      5-min Rain = 0
KWT1 081350Z 01011KT M01/M01 A3028 RMK A01 T10071007  RH  100%=      5-min Rain = 0
KWT1 081351Z 00010KT M01/M01 A3028 RMK A01 T10071007  RH  100%=      5-min Rain = 0
KWT1 081352Z 00009KT M01/M01 A3028 RMK A01 T10071007  RH  100%=      5-min Rain = 0
KWT1 081353Z 01011KT M01/M01 A3028 RMK A01 T10071008  RH  100%=      5-min Rain = 0
KWT1 081354Z 00010KT M01/M01 A3028 RMK A01 T10071008  RH  100%=      5-min Rain = 0
KWT1 081355Z 01010KT M01/M01 A3028 RMK A01 T10071007  RH  100%=      5-min Rain = 0
KWT1 081356Z 01011KT M01/M01 A3028 RMK A01 T10081008  RH  100%=      5-min Rain = 0
KWT1 081357Z 01011KT M01/M01 A3028 RMK A01 T10081008  RH  100%=      5-min Rain = 0
KWT1 081358Z 01009KT M01/M01 A3028 RMK A01 T10081008  RH  100%=      5-min Rain = 0
KWT1 081359Z 01012KT M01/M01 A3028 RMK A01 T10081008  RH  100%=      5-min Rain = 0
KWT1 081400Z 01010KT M01/M01 A3028 RMK A01 T10081008  RH  100%=      5-min Rain = 0
KWT1 081401Z 01010KT M01/M01 A3028 RMK A01 T10081008  RH  100%=      5-min Rain = 0
KWT1 081402Z 02009KT M01/M01 A3028 RMK A01 T10081008  RH  100%=      5-min Rain = 0
KWT1 081403Z 01008KT M01/M01 A3028 RMK A01 T10081008  RH  100%=      5-min Rain = 0
KWT1 081404Z 01010KT M01/M01 A3028 RMK A01 T10081008  RH  100%=      5-min Rain = 0
KWT1 081405Z 02009KT M01/M01 A3028 RMK A01 T10081008  RH  100%=      5-min Rain = 0
KWT1 081406Z 01010KT M01/M01 A3028 RMK A01 T10081008  RH  100%=      5-min Rain = 0
KWT1 081407Z 01009KT M01/M01 A3028 RMK A01 T10081008  RH  100%=      5-min Rain = 0
KWT1 081408Z 02010KT M01/M01 A3028 RMK A01 T10081008  RH  100%=      5-min Rain = 0
KWT1 081409Z 02011KT M01/M01 A3028 RMK A01 T10081008  RH  100%=      5-min Rain = 0
KWT1 081410Z 02008KT M01/M01 A3028 RMK A01 T10081008  RH  100%=      5-min Rain = 0
KWT1 081411Z 01010KT M01/M01 A3028 RMK A01 T10081009  RH  100%=      5-min Rain = 0
KWT1 081412Z 02010KT M01/M01 A3028 RMK A01 T10081008  RH  100%=      5-min Rain = 0
KWT1 081413Z 02009KT M01/M01 A3028 RMK A01 T10081009  RH  100%=      5-min Rain = 0
KWT1 081414Z 02008KT M01/M01 A3028 RMK A01 T10091009  RH  100%=      5-min Rain = 0
KWT1 081415Z 02010KT M01/M01 A3029 RMK A01 T10091009  RH  100%=      5-min Rain = 0
KWT1 081416Z 02009KT M01/M01 A3028 RMK A01 T10091009  RH  100%=      5-min Rain = 0
KWT1 081417Z 02010KT M01/M01 A3028 RMK A01 T10091009  RH  100%=      5-min Rain = 0
KWT1 081418Z 02011KT M01/M01 A3028 RMK A01 T10091009  RH  100%=      5-min Rain = 0
KWT1 081419Z 02009KT M01/M01 A3028 RMK A01 T10091009  RH  100%=      5-min Rain = 0
KWT1 081420Z 02008KT M01/M01 A3028 RMK A01 T10091009  RH  100%=      5-min Rain = 0
KWT1 081421Z 02008KT M01/M01 A3028 RMK A01 T10091009  RH  100%=      5-min Rain = 0
KWT1 081422Z 02010KT M01/M01 A3028 RMK A01 T10091009  RH  100%=      5-min Rain = 0
KWT1 081423Z 02009KT M01/M01 A3028 RMK A01 T10081009  RH  100%=      5-min Rain = 0
KWT1 081424Z 02010KT M01/M01 A3028 RMK A01 T10091009  RH  100%=      5-min Rain = 0
KWT1 081425Z 02009KT M01/M01 A3028 RMK A01 T10091009  RH  100%=      5-min Rain = 0
KWT1 081426Z 02009KT M01/M01 A3028 RMK A01 T10091009  RH  100%=      5-min Rain = 0
KWT1 081427Z 02010KT M01/M01 A3028 RMK A01 T10091009  RH  100%=      5-min Rain = 0
KWT1 081428Z 02009KT M01/M01 A3028 RMK A01 T10081009  RH  100%=      5-min Rain = 0
KWT1 081429Z 02009KT M01/M01 A3028 RMK A01 T10091009  RH  100%=      5-min Rain = 0
KWT1 081430Z 02009KT M01/M01 A3028 RMK A01 T10081009  RH  100%=      5-min Rain = 0
KWT1 081431Z 02007KT M01/M01 A3029 RMK A01 T10081009  RH  100%=      5-min Rain = 0
KWT1 081432Z 01009KT M01/M01 A3029 RMK A01 T10091009  RH  100%=      5-min Rain = 0
KWT1 081433Z 01010KT M01/M01 A3029 RMK A01 T10091009  RH  100%=      5-min Rain = 0
KWT1 081434Z 01011KT M01/M01 A3029 RMK A01 T10091009  RH  100%=      5-min Rain = 0
KWT1 081435Z 01009KT M01/M01 A3029 RMK A01 T10091009  RH  100%=      5-min Rain = 0
KWT1 081436Z 01007KT M01/M01 A3029 RMK A01 T10091009  RH  100%=      5-min Rain = 0
KWT1 081437Z 01007KT M01/M01 A3029 RMK A01 T10091009  RH  100%=      5-min Rain = 0
KWT1 081438Z 01008KT M01/M01 A3029 RMK A01 T10081009  RH  100%=      5-min Rain = 0
KWT1 081439Z 01007KT M01/M01 A3029 RMK A01 T10081008  RH  100%=      5-min Rain = 0
KWT1 081440Z 01007KT M01/M01 A3029 RMK A01 T10081008  RH  100%=      5-min Rain = 0
KWT1 081441Z 01008KT M01/M01 A3029 RMK A01 T10081008  RH  100%=      5-min Rain = 0
KWT1 081442Z 01007KT M01/M01 A3029 RMK A01 T10081008  RH  100%=      5-min Rain = 0
KWT1 081443Z 01008KT M01/M01 A3029 RMK A01 T10081008  RH  100%=      5-min Rain = 0
KWT1 081444Z 01008KT M01/M01 A3029 RMK A01 T10081008  RH  100%=      5-min Rain = 0
KWT1 081445Z 02007KT M01/M01 A3029 RMK A01 T10081008  RH  100%=      5-min Rain = 0
KWT1 081446Z 01005KT M01/M01 A3029 RMK A01 T10081008  RH  100%=      5-min Rain = 0
KWT1 081447Z 01006KT M01/M01 A3029 RMK A01 T10081008  RH  100%=      5-min Rain = 0
KWT1 081448Z 01007KT M01/M01 A3029 RMK A01 T10071007  RH  100%=      5-min Rain = 0
KWT1 081449Z 01007KT M01/M01 A3029 RMK A01 T10071007  RH  100%=      5-min Rain = 0
KWT1 081450Z 00007KT M01/M01 A3029 RMK A01 T10071007  RH  100%=      5-min Rain = 0
KWT1 081451Z 01007KT M01/M01 A3029 RMK A01 T10071007  RH  100%=      5-min Rain = 0
KWT1 081452Z 01008KT M01/M01 A303 RMK A01 T10071007  RH  100%=      5-min Rain = 0
KWT1 081453Z 01009KT M01/M01 A303 RMK A01 T10071007  RH  100%=      5-min Rain = 0
KWT1 081454Z 01008KT M01/M01 A303 RMK A01 T10071007  RH  100%=      5-min Rain = 0.01
KWT1 081455Z 01006KT M01/M01 A303 RMK A01 T10071007  RH  100%=      5-min Rain = 0
KWT1 081456Z 01008KT M01/M01 A303 RMK A01 T10071007  RH  100%=      5-min Rain = 0
KWT1 081457Z 00007KT M01/M01 A303 RMK A01 T10071007  RH  100%=      5-min Rain = 0
KWT1 081458Z 00008KT M01/M01 A303 RMK A01 T10071007  RH  100%=      5-min Rain = 0
KWT1 081459Z 36009KT M01/M01 A303 RMK A01 T10071007  RH  100%=      5-min Rain = 0
KWT1 081500Z 00009KT M01/M01 A303 RMK A01 T10071007  RH  100%=      5-min Rain = 0
KWT1 081501Z 00009KT M01/M01 A303 RMK A01 T10081008  RH  100%=      5-min Rain = 0
KWT1 081502Z 00007KT M01/M01 A303 RMK A01 T10081008  RH  100%=      5-min Rain = 0
KWT1 081503Z 00009KT M01/M01 A303 RMK A01 T10081008  RH  100%=      5-min Rain = 0
KWT1 081504Z 36010KT M01/M01 A303 RMK A01 T10081008  RH  100%=      5-min Rain = 0
KWT1 081505Z 00009KT M01/M01 A303 RMK A01 T10081008  RH  100%=      5-min Rain = 0
KWT1 081506Z 00010KT M01/M01 A3031 RMK A01 T10091009  RH  100%=      5-min Rain = 0
KWT1 081507Z 00009KT M01/M01 A3031 RMK A01 T10091009  RH  100%=      5-min Rain = 0
KWT1 081508Z 01009KT M01/M01 A3031 RMK A01 T10091009  RH  100%=      5-min Rain = 0
KWT1 081509Z 01009KT M01/M01 A3031 RMK A01 T10091009  RH  100%=      5-min Rain = 0
KWT1 081510Z 01009KT M01/M01 A3031 RMK A01 T10091010  RH  100%=      5-min Rain = 0
KWT1 081511Z 01010KT M01/M01 A3031 RMK A01 T10101010  RH  100%=      5-min Rain = 0
KWT1 081512Z 01007KT M01/M01 A3031 RMK A01 T10101010  RH  100%=      5-min Rain = 0
KWT1 081513Z 01009KT M01/M01 A3031 RMK A01 T10101010  RH  100%=      5-min Rain = 0
KWT1 081514Z 02010KT M01/M01 A3031 RMK A01 T10101010  RH  100%=      5-min Rain = 0
KWT1 081515Z 00007KT M01/M01 A3031 RMK A01 T10101010  RH  100%=      5-min Rain = 0
KWT1 081516Z 01009KT M01/M01 A3031 RMK A01 T10101010  RH  100%=      5-min Rain = 0
KWT1 081517Z 01010KT M01/M01 A3031 RMK A01 T10101010  RH  100%=      5-min Rain = 0
KWT1 081518Z 01009KT M01/M01 A3031 RMK A01 T10101010  RH  100%=      5-min Rain = 0
KWT1 081519Z 01008KT M01/M01 A3031 RMK A01 T10101010  RH  100%=      5-min Rain = 0
KWT1 081520Z 00009KT M01/M01 A3031 RMK A01 T10101010  RH  100%=      5-min Rain = 0
KWT1 081521Z 01010KT M01/M01 A3031 RMK A01 T10101010  RH  100%=      5-min Rain = 0
KWT1 081522Z 01009KT M01/M01 A3031 RMK A01 T10101010  RH  100%=      5-min Rain = 0
KWT1 081523Z 02009KT M01/M01 A3031 RMK A01 T10101010  RH  100%=      5-min Rain = 0
KWT1 081524Z 01008KT M01/M01 A3031 RMK A01 T10101010  RH  100%=      5-min Rain = 0
KWT1 081525Z 01007KT M01/M01 A3031 RMK A01 T10101010  RH  100%=      5-min Rain = 0
KWT1 081526Z 01008KT M01/M01 A3031 RMK A01 T10101010  RH  100%=      5-min Rain = 0
KWT1 081527Z 01009KT M01/M01 A3031 RMK A01 T10101010  RH  100%=      5-min Rain = 0
KWT1 081528Z 01009KT M01/M01 A3031 RMK A01 T10091010  RH  100%=      5-min Rain = 0
KWT1 081529Z 01010KT M01/M01 A3031 RMK A01 T10101010  RH  100%=      5-min Rain = 0
KWT1 081530Z 02009KT M01/M01 A3031 RMK A01 T10091010  RH  100%=      5-min Rain = 0
KWT1 081531Z 01009KT M01/M01 A3031 RMK A01 T10091010  RH  100%=      5-min Rain = 0
KWT1 081532Z 01009KT M01/M01 A3031 RMK A01 T10101010  RH  100%=      5-min Rain = 0
KWT1 081533Z 01008KT M01/M01 A3031 RMK A01 T10101010  RH  100%=      5-min Rain = 0
KWT1 081534Z 01006KT M01/M01 A3031 RMK A01 T10091009  RH  100%=      5-min Rain = 0
KWT1 081535Z 01008KT M01/M01 A3031 RMK A01 T10091009  RH  100%=      5-min Rain = 0
KWT1 081536Z 01008KT M01/M01 A3031 RMK A01 T10081009  RH  100%=      5-min Rain = 0
KWT1 081537Z 01007KT M01/M01 A3031 RMK A01 T10091009  RH  100%=      5-min Rain = 0
KWT1 081538Z 01006KT M01/M01 A3031 RMK A01 T10091009  RH  100%=      5-min Rain = 0
KWT1 081539Z 00008KT M01/M01 A3031 RMK A01 T10081009  RH  100%=      5-min Rain = 0
KWT1 081540Z 36009KT M01/M01 A3031 RMK A01 T10081009  RH  100%=      5-min Rain = 0
KWT1 081541Z 00009KT M01/M01 A3031 RMK A01 T10081008  RH  100%=      5-min Rain = 0
KWT1 081542Z 01009KT M01/M01 A3031 RMK A01 T10081008  RH  100%=      5-min Rain = 0
KWT1 081543Z 00008KT M01/M01 A3031 RMK A01 T10081009  RH  100%=      5-min Rain = 0
KWT1 081544Z 36010KT M01/M01 A3032 RMK A01 T10081009  RH  100%=      5-min Rain = 0
KWT1 081545Z 36009KT M01/M01 A3032 RMK A01 T10081008  RH  100%=      5-min Rain = 0
KWT1 081546Z 01009KT M01/M01 A3032 RMK A01 T10081008  RH  100%=      5-min Rain = 0
KWT1 081547Z 36008KT M01/M01 A3032 RMK A01 T10081009  RH  100%=      5-min Rain = 0
KWT1 081548Z 36008KT M01/M01 A3032 RMK A01 T10081009  RH  100%=      5-min Rain = 0
KWT1 081549Z 36008KT M01/M01 A3032 RMK A01 T10081009  RH  100%=      5-min Rain = 0
KWT1 081550Z 36008KT M01/M01 A3032 RMK A01 T10081008  RH  100%=      5-min Rain = 0
KWT1 081551Z 00007KT M01/M01 A3032 RMK A01 T10081008  RH  100%=      5-min Rain = 0
KWT1 081552Z 36008KT M01/M01 A3032 RMK A01 T10081009  RH  100%=      5-min Rain = 0
KWT1 081553Z 36008KT M01/M01 A3032 RMK A01 T10081008  RH  100%=      5-min Rain = 0
KWT1 081554Z 36008KT M01/M01 A3032 RMK A01 T10081008  RH  100%=      5-min Rain = 0
KWT1 081555Z 35009KT M01/M01 A3032 RMK A01 T10081008  RH  100%=      5-min Rain = 0
KWT1 081556Z 35009KT M01/M01 A3032 RMK A01 T10081008  RH  100%=      5-min Rain = 0
KWT1 081557Z 36010KT M01/M01 A3032 RMK A01 T10081009  RH  100%=      5-min Rain = 0
KWT1 081558Z 36008KT M01/M01 A3032 RMK A01 T10091009  RH  100%=      5-min Rain = 0
KWT1 081559Z 36009KT M01/M01 A3032 RMK A01 T10091009  RH  100%=      5-min Rain = 0
KWT1 081600Z 36008KT M01/M01 A3032 RMK A01 T10091009  RH  100%=      5-min Rain = 0
KWT1 081601Z 01010KT M01/M01 A3032 RMK A01 T10081009  RH  100%=      5-min Rain = 0
KWT1 081602Z 00008KT M01/M01 A3032 RMK A01 T10091009  RH  100%=      5-min Rain = 0
KWT1 081603Z 00008KT M01/M01 A3032 RMK A01 T10091009  RH  100%=      5-min Rain = 0
KWT1 081604Z 00009KT M01/M01 A3032 RMK A01 T10091009  RH  100%=      5-min Rain = 0
KWT1 081605Z 00009KT M01/M01 A3032 RMK A01 T10081009  RH  100%=      5-min Rain = 0
KWT1 081606Z 00007KT M01/M01 A3033 RMK A01 T10091009  RH  100%=      5-min Rain = 0
KWT1 081607Z 36008KT M01/M01 A3033 RMK A01 T10091009  RH  100%=      5-min Rain = 0
KWT1 081608Z 35008KT M01/M01 A3033 RMK A01 T10081009  RH  100%=      5-min Rain = 0
KWT1 081609Z 36007KT M01/M01 A3033 RMK A01 T10081009  RH  100%=      5-min Rain = 0
KWT1 081610Z 36009KT M01/M01 A3033 RMK A01 T10081009  RH  100%=      5-min Rain = 0
KWT1 081611Z 36007KT M01/M01 A3033 RMK A01 T10081009  RH  100%=      5-min Rain = 0
KWT1 081612Z 35007KT M01/M01 A3033 RMK A01 T10081008  RH  100%=      5-min Rain = 0
KWT1 081613Z 36009KT M01/M01 A3033 RMK A01 T10081008  RH  100%=      5-min Rain = 0
KWT1 081614Z 00009KT M01/M01 A3032 RMK A01 T10081008  RH  100%=      5-min Rain = 0
KWT1 081615Z 36010KT M01/M01 A3033 RMK A01 T10081008  RH  100%=      5-min Rain = 0
KWT1 081616Z 36009KT M01/M01 A3033 RMK A01 T10081008  RH  100%=      5-min Rain = 0.01
KWT1 081617Z 00010KT M01/M01 A3033 RMK A01 T10081008  RH  100%=      5-min Rain = 0
KWT1 081618Z 00008KT M01/M01 A3033 RMK A01 T10081009  RH  100%=      5-min Rain = 0
KWT1 081619Z 01009KT M01/M01 A3033 RMK A01 T10081009  RH  100%=      5-min Rain = 0
KWT1 081620Z 00009KT M01/M01 A3033 RMK A01 T10081009  RH  100%=      5-min Rain = 0
KWT1 081621Z 01012KT M01/M01 A3033 RMK A01 T10081009  RH  100%=      5-min Rain = 0
KWT1 081622Z 00011KT M01/M01 A3032 RMK A01 T10091010  RH  100%=      5-min Rain = 0
KWT1 081623Z 00009KT M01/M01 A3033 RMK A01 T10091010  RH  100%=      5-min Rain = 0
KWT1 081624Z 36011KT M01/M01 A3033 RMK A01 T10091010  RH  100%=      5-min Rain = 0
KWT1 081625Z 00010KT M01/M01 A3032 RMK A01 T10091010  RH  100%=      5-min Rain = 0
KWT1 081626Z 00010KT M01/M01 A3033 RMK A01 T10091010  RH  100%=      5-min Rain = 0
KWT1 081627Z 00011KT M01/M01 A3033 RMK A01 T10101010  RH  100%=      5-min Rain = 0
KWT1 081628Z 36010KT M01/M01 A3033 RMK A01 T10101010  RH  100%=      5-min Rain = 0
KWT1 081629Z 00008KT M01/M01 A3033 RMK A01 T10091010  RH  100%=      5-min Rain = 0
KWT1 081630Z 01009KT M01/M01 A3033 RMK A01 T10091010  RH  100%=      5-min Rain = 0
KWT1 081631Z 01011KT M01/M01 A3033 RMK A01 T10081009  RH  100%=      5-min Rain = 0
KWT1 081632Z 01014KT M01/M01 A3033 RMK A01 T10091009  RH  100%=      5-min Rain = 0
KWT1 081633Z 01012KT M01/M01 A3033 RMK A01 T10091010  RH  099%=      5-min Rain = 0
KWT1 081634Z 01011KT M01/M01 A3033 RMK A01 T10091010  RH  099%=      5-min Rain = 0
KWT1 081635Z 00012KT M01/M01 A3033 RMK A01 T10091010  RH  099%=      5-min Rain = 0.01
KWT1 081636Z 00010KT M01/M01 A3033 RMK A01 T10101010  RH  099%=      5-min Rain = 0
KWT1 081637Z 01013KT M01/M01 A3033 RMK A01 T10101010  RH  099%=      5-min Rain = 0
KWT1 081638Z 01013KT M01/M01 A3033 RMK A01 T10101011  RH  099%=      5-min Rain = 0
KWT1 081639Z 01010KT M01/M01 A3033 RMK A01 T10101011  RH  099%=      5-min Rain = 0
KWT1 081640Z 01009KT M01/M01 A3033 RMK A01 T10101011  RH  099%=      5-min Rain = 0
KWT1 081641Z 01011KT M01/M01 A3033 RMK A01 T10091010  RH  099%=      5-min Rain = 0
KWT1 081642Z 00011KT M01/M01 A3033 RMK A01 T10091010  RH  099%=      5-min Rain = 0
KWT1 081643Z 01011KT M01/M01 A3033 RMK A01 T10091010  RH  099%=      5-min Rain = 0
KWT1 081644Z 01009KT M01/M01 A3033 RMK A01 T10091010  RH  099%=      5-min Rain = 0
KWT1 081645Z 01009KT M01/M01 A3033 RMK A01 T10081010  RH  099%=      5-min Rain = 0
KWT1 081646Z 01010KT M01/M01 A3033 RMK A01 T10081009  RH  099%=      5-min Rain = 0
KWT1 081647Z 00010KT M01/M01 A3033 RMK A01 T10081009  RH  099%=      5-min Rain = 0
KWT1 081648Z 00008KT M01/M01 A3033 RMK A01 T10081009  RH  099%=      5-min Rain = 0
KWT1 081649Z 00011KT M01/M01 A3033 RMK A01 T10071008  RH  099%=      5-min Rain = 0
KWT1 081650Z 36008KT M01/M01 A3033 RMK A01 T10081009  RH  099%=      5-min Rain = 0.01
KWT1 081651Z 36010KT M01/M01 A3033 RMK A01 T10081009  RH  099%=      5-min Rain = 0
KWT1 081652Z 36009KT M01/M01 A3033 RMK A01 T10081009  RH  099%=      5-min Rain = 0
KWT1 081653Z 36007KT M01/M01 A3033 RMK A01 T10071009  RH  099%=      5-min Rain = 0
KWT1 081654Z 01007KT M01/M01 A3033 RMK A01 T10071008  RH  099%=      5-min Rain = 0
KWT1 081655Z 36007KT M01/M01 A3033 RMK A01 T10071008  RH  099%=      5-min Rain = 0
KWT1 081656Z 35007KT M01/M01 A3033 RMK A01 T10061007  RH  099%=      5-min Rain = 0
KWT1 081657Z 36007KT M01/M01 A3033 RMK A01 T10061007  RH  099%=      5-min Rain = 0
KWT1 081658Z 00007KT M01/M01 A3033 RMK A01 T10051006  RH  099%=      5-min Rain = 0
KWT1 081659Z 36008KT M01/M01 A3033 RMK A01 T10051006  RH  099%=      5-min Rain = 0
KWT1 081700Z 00008KT M01/M01 A3033 RMK A01 T10051006  RH  099%=      5-min Rain = 0
KWT1 081701Z 00009KT M01/M01 A3033 RMK A01 T10051006  RH  099%=      5-min Rain = 0.01
KWT1 081702Z 00009KT M01/M01 A3033 RMK A01 T10051006  RH  099%=      5-min Rain = 0
KWT1 081703Z 00007KT M01/M01 A3033 RMK A01 T10051006  RH  099%=      5-min Rain = 0
KWT1 081704Z 35009KT M01/M01 A3033 RMK A01 T10051006  RH  099%=      5-min Rain = 0
KWT1 081705Z 36008KT M01/M01 A3033 RMK A01 T10051006  RH  099%=      5-min Rain = 0
KWT1 081706Z 00010KT M01/M01 A3033 RMK A01 T10051006  RH  099%=      5-min Rain = 0
KWT1 081707Z 36008KT M01/M01 A3033 RMK A01 T10051006  RH  099%=      5-min Rain = 0
KWT1 081708Z 36008KT M01/M01 A3033 RMK A01 T10051006  RH  099%=      5-min Rain = 0
KWT1 081709Z 35008KT M00/M01 A3033 RMK A01 T10041005  RH  099%=      5-min Rain = 0
KWT1 081710Z 35009KT M00/M01 A3033 RMK A01 T10041005  RH  099%=      5-min Rain = 0.01
KWT1 081711Z 35008KT M00/M01 A3033 RMK A01 T10041005  RH  099%=      5-min Rain = 0
KWT1 081712Z 35010KT M00/M01 A3033 RMK A01 T10041005  RH  099%=      5-min Rain = 0
KWT1 081713Z 36007KT M01/M01 A3033 RMK A01 T10051006  RH  099%=      5-min Rain = 0
KWT1 081714Z 36008KT M00/M01 A3033 RMK A01 T10041006  RH  099%=      5-min Rain = 0
KWT1 081715Z 00008KT M00/M01 A3033 RMK A01 T10041005  RH  099%=      5-min Rain = 0
KWT1 081716Z 35009KT M00/M01 A3033 RMK A01 T10041005  RH  099%=      5-min Rain = 0
KWT1 081717Z 35009KT M01/M01 A3033 RMK A01 T10051006  RH  099%=      5-min Rain = 0
KWT1 081718Z 36011KT M01/M01 A3033 RMK A01 T10051007  RH  099%=      5-min Rain = 0.01
KWT1 081719Z 00010KT M01/M01 A3033 RMK A01 T10061007  RH  099%=      5-min Rain = 0
KWT1 081720Z 36010KT M01/M01 A3033 RMK A01 T10061007  RH  099%=      5-min Rain = 0
KWT1 081721Z 36007KT M01/M01 A3033 RMK A01 T10061008  RH  099%=      5-min Rain = 0
KWT1 081722Z 01008KT M01/M01 A3033 RMK A01 T10061008  RH  099%=      5-min Rain = 0
KWT1 081723Z 01008KT M01/M01 A3033 RMK A01 T10061007  RH  099%=      5-min Rain = 0
KWT1 081724Z 00008KT M01/M01 A3033 RMK A01 T10051007  RH  099%=      5-min Rain = 0
KWT1 081725Z 36009KT M01/M01 A3033 RMK A01 T10051007  RH  099%=      5-min Rain = 0
KWT1 081726Z 01008KT M01/M01 A3033 RMK A01 T10061008  RH  099%=      5-min Rain = 0
KWT1 081727Z 00007KT M01/M01 A3033 RMK A01 T10061008  RH  099%=      5-min Rain = 0.01
KWT1 081728Z 36010KT M01/M01 A3033 RMK A01 T10061008  RH  099%=      5-min Rain = 0
KWT1 081729Z 00010KT M01/M01 A3033 RMK A01 T10061008  RH  099%=      5-min Rain = 0
KWT1 081730Z 01011KT M01/M01 A3033 RMK A01 T10061008  RH  099%=      5-min Rain = 0
KWT1 081731Z 00009KT M01/M01 A3033 RMK A01 T10061008  RH  099%=      5-min Rain = 0
KWT1 081732Z 01009KT M01/M01 A3033 RMK A01 T10061008  RH  099%=      5-min Rain = 0
KWT1 081733Z 00008KT M01/M01 A3033 RMK A01 T10061008  RH  099%=      5-min Rain = 0
KWT1 081734Z 00007KT M01/M01 A3033 RMK A01 T10061008  RH  099%=      5-min Rain = 0
KWT1 081735Z 36007KT M01/M01 A3033 RMK A01 T10051007  RH  099%=      5-min Rain = 0.01
KWT1 081736Z 01008KT M01/M01 A3032 RMK A01 T10051007  RH  099%=      5-min Rain = 0
KWT1 081737Z 00007KT M01/M01 A3033 RMK A01 T10051007  RH  099%=      5-min Rain = 0
KWT1 081738Z 36007KT M01/M01 A3032 RMK A01 T10051007  RH  099%=      5-min Rain = 0
KWT1 081739Z 36007KT M01/M01 A3033 RMK A01 T10051007  RH  099%=      5-min Rain = 0
KWT1 081740Z 36008KT M00/M01 A3032 RMK A01 T10041006  RH  099%=      5-min Rain = 0
KWT1 081741Z 00007KT M00/M01 A3032 RMK A01 T10041006  RH  098%=      5-min Rain = 0.01
KWT1 081742Z 00007KT M00/M01 A3032 RMK A01 T10041006  RH  098%=      5-min Rain = 0
KWT1 081743Z 01009KT M00/M01 A3032 RMK A01 T10041006  RH  098%=      5-min Rain = 0
KWT1 081744Z 01010KT M00/M01 A3032 RMK A01 T10041006  RH  098%=      5-min Rain = 0
KWT1 081745Z 00009KT M00/M01 A3032 RMK A01 T10041007  RH  098%=      5-min Rain = 0
KWT1 081746Z 35010KT M01/M01 A3032 RMK A01 T10051008  RH  098%=      5-min Rain = 0.01
KWT1 081747Z 35009KT M01/M01 A3032 RMK A01 T10061008  RH  098%=      5-min Rain = 0
KWT1 081748Z 35009KT M01/M01 A3032 RMK A01 T10051008  RH  098%=      5-min Rain = 0
KWT1 081749Z 35009KT M01/M01 A3032 RMK A01 T10051008  RH  098%=      5-min Rain = 0
KWT1 081750Z 35009KT M01/M01 A3032 RMK A01 T10051008  RH  098%=      5-min Rain = 0
KWT1 081751Z 36009KT M01/M01 A3032 RMK A01 T10051008  RH  098%=      5-min Rain = 0.01
KWT1 081752Z 35008KT M01/M01 A3032 RMK A01 T10051008  RH  098%=      5-min Rain = 0
KWT1 081753Z 01007KT M01/M01 A3032 RMK A01 T10051008  RH  098%=      5-min Rain = 0
KWT1 081754Z 36007KT M00/M01 A3032 RMK A01 T10041007  RH  098%=      5-min Rain = 0
KWT1 081755Z 00009KT M00/M01 A3032 RMK A01 T10031006  RH  098%=      5-min Rain = 0
KWT1 081756Z 01009KT M00/M01 A3032 RMK A01 T10031006  RH  098%=      5-min Rain = 0.01
KWT1 081757Z 00009KT M00/M01 A3032 RMK A01 T10031006  RH  098%=      5-min Rain = 0
KWT1 081758Z 01008KT M00/M01 A3032 RMK A01 T10031006  RH  098%=      5-min Rain = 0
KWT1 081759Z 35007KT M00/M01 A3032 RMK A01 T10021005  RH  098%=      5-min Rain = 0
KWT1 081800Z 35008KT M00/M01 A3032 RMK A01 T10021005  RH  098%=      5-min Rain = 0.01
KWT1 081801Z 35007KT M00/M00 A3032 RMK A01 T10011004  RH  098%=      5-min Rain = 0
KWT1 081802Z 35008KT M00/M00 A3032 RMK A01 T10011004  RH  098%=      5-min Rain = 0
KWT1 081803Z 36007KT M00/M01 A3032 RMK A01 T10011005  RH  098%=      5-min Rain = 0.01
KWT1 081804Z 35008KT M00/M00 A3032 RMK A01 T10011004  RH  098%=      5-min Rain = 0
KWT1 081805Z 35008KT M00/M01 A3032 RMK A01 T10011005  RH  098%=      5-min Rain = 0
KWT1 081806Z 34008KT M00/M00 A3032 RMK A01 T10011004  RH  098%=      5-min Rain = 0.01
KWT1 081807Z 35007KT M00/M00 A3032 RMK A01 T10011004  RH  098%=      5-min Rain = 0
KWT1 081808Z 01008KT M00/M00 A3032 RMK A01 T10011004  RH  098%=      5-min Rain = 0
KWT1 081809Z 00009KT M00/M01 A3032 RMK A01 T10011005  RH  098%=      5-min Rain = 0.01
KWT1 081810Z 00010KT M00/M01 A3032 RMK A01 T10021006  RH  097%=      5-min Rain = 0
KWT1 081811Z 00009KT M00/M01 A3032 RMK A01 T10021007  RH  097%=      5-min Rain = 0
KWT1 081812Z 00008KT M00/M01 A3032 RMK A01 T10021007  RH  097%=      5-min Rain = 0.01
KWT1 081813Z 36008KT M00/M01 A3031 RMK A01 T10021006  RH  097%=      5-min Rain = 0
KWT1 081814Z 36007KT M00/M01 A3031 RMK A01 T10011005  RH  097%=      5-min Rain = 0
KWT1 081815Z 01006KT M00/M01 A3031 RMK A01 T10011005  RH  097%=      5-min Rain = 0.01
KWT1 081816Z 01008KT 00/M00 A3031 RMK A01 T00011004  RH  097%=      5-min Rain = 0
KWT1 081817Z 01008KT 00/M00 A3031 RMK A01 T00011004  RH  097%=      5-min Rain = 0.01
KWT1 081818Z 01008KT 00/00 A3031 RMK A01 T000000-4  RH  097%=      5-min Rain = 0
KWT1 081819Z 01006KT 00/00 A3031 RMK A01 T000000-4  RH  097%=      5-min Rain = 0
KWT1 081820Z 00006KT 00/00 A3031 RMK A01 T00-000-4  RH  097%=      5-min Rain = 0.01
KWT1 081821Z 33005KT 00/00 A3031 RMK A01 T00-000-4  RH  097%=      5-min Rain = 0
KWT1 081822Z 34008KT 00/00 A3031 RMK A01 T000000-4  RH  097%=      5-min Rain = 0
KWT1 081823Z 34008KT M00/M01 A3031 RMK A01 T10011005  RH  097%=      5-min Rain = 0.01
KWT1 081824Z 34008KT M00/M01 A3031 RMK A01 T10011005  RH  097%=      5-min Rain = 0
KWT1 081825Z 35008KT M00/M01 A3031 RMK A01 T10011005  RH  097%=      5-min Rain = 0
KWT1 081826Z 35008KT M00/M00 A3031 RMK A01 T10011004  RH  097%=      5-min Rain = 0
KWT1 081827Z 34008KT M00/M00 A3031 RMK A01 T10011004  RH  097%=      5-min Rain = 0.01
KWT1 081828Z 35008KT M00/M00 A3031 RMK A01 T10011004  RH  097%=      5-min Rain = 0
KWT1 081829Z 36010KT 00/00 A3031 RMK A01 T00-000-4  RH  097%=      5-min Rain = 0
KWT1 081830Z 36009KT M00/M01 A3031 RMK A01 T10021006  RH  097%=      5-min Rain = 0
KWT1 081831Z 35009KT M00/M01 A3031 RMK A01 T10021006  RH  097%=      5-min Rain = 0.01
KWT1 081832Z 35010KT M00/M01 A3031 RMK A01 T10011005  RH  097%=      5-min Rain = 0
KWT1 081833Z 35009KT M00/M01 A3031 RMK A01 T10011005  RH  097%=      5-min Rain = 0
KWT1 081834Z 35009KT M00/M01 A3031 RMK A01 T10021006  RH  097%=      5-min Rain = 0
KWT1 081835Z 35008KT M00/M01 A3031 RMK A01 T10021006  RH  097%=      5-min Rain = 0
KWT1 081836Z 35008KT M00/M01 A3031 RMK A01 T10021006  RH  097%=      5-min Rain = 0.01
KWT1 081837Z 35008KT M00/M01 A3031 RMK A01 T10021006  RH  097%=      5-min Rain = 0
KWT1 081838Z 35007KT M00/M01 A3031 RMK A01 T10011006  RH  097%=      5-min Rain = 0
KWT1 081839Z 34007KT M00/M01 A3031 RMK A01 T10011006  RH  097%=      5-min Rain = 0
KWT1 081840Z 34008KT M00/M01 A3031 RMK A01 T10011005  RH  097%=      5-min Rain = 0
KWT1 081841Z 35007KT M00/M01 A3031 RMK A01 T10011005  RH  097%=      5-min Rain = 0.01
KWT1 081842Z 34006KT M00/M01 A3031 RMK A01 T10011005  RH  097%=      5-min Rain = 0
KWT1 081843Z 35007KT M00/M01 A3031 RMK A01 T10011005  RH  097%=      5-min Rain = 0
KWT1 081844Z 35009KT M00/M01 A3031 RMK A01 T10011005  RH  097%=      5-min Rain = 0
KWT1 081845Z 35009KT M00/M01 A3031 RMK A01 T10021006  RH  097%=      5-min Rain = 0
KWT1 081846Z 35008KT M00/M01 A3031 RMK A01 T10021006  RH  097%=      5-min Rain = 0
KWT1 081847Z 35008KT M00/M01 A303 RMK A01 T10021007  RH  096%=      5-min Rain = 0
KWT1 081848Z 33006KT M00/M01 A303 RMK A01 T10021007  RH  096%=      5-min Rain = 0.01
KWT1 081849Z 34006KT M00/M01 A303 RMK A01 T10011006  RH  096%=      5-min Rain = 0
KWT1 081850Z 34007KT M00/M01 A303 RMK A01 T10011006  RH  096%=      5-min Rain = 0
KWT1 081851Z 34007KT 00/01 A303 RMK A01 T00-000-6  RH  096%=      5-min Rain = 0
KWT1 081852Z 34008KT 00/01 A303 RMK A01 T00-000-6  RH  096%=      5-min Rain = 0
KWT1 081853Z 34008KT M00/M01 A303 RMK A01 T10011006  RH  096%=      5-min Rain = 0
KWT1 081854Z 35009KT 00/01 A303 RMK A01 T00-000-6  RH  096%=      5-min Rain = 0
KWT1 081855Z 36008KT 00/01 A303 RMK A01 T00-000-6  RH  096%=      5-min Rain = 0
KWT1 081856Z 36008KT 00/01 A303 RMK A01 T00-000-6  RH  096%=      5-min Rain = 0
KWT1 081857Z 00009KT 00/01 A303 RMK A01 T00-000-6  RH  096%=      5-min Rain = 0.01
KWT1 081858Z 36009KT 00/01 A303 RMK A01 T000000-6  RH  095%=      5-min Rain = 0
KWT1 081859Z 36007KT 00/01 A303 RMK A01 T000000-6  RH  095%=      5-min Rain = 0
KWT1 081900Z 35009KT 00/M01 A303 RMK A01 T00011006  RH  096%=      5-min Rain = 0
KWT1 081901Z 36011KT 00/M01 A303 RMK A01 T00011006  RH  095%=      5-min Rain = 0
KWT1 081902Z 35010KT 00/01 A303 RMK A01 T000000-7  RH  095%=      5-min Rain = 0
KWT1 081903Z 35009KT 00/01 A303 RMK A01 T00-000-7  RH  095%=      5-min Rain = 0
KWT1 081904Z 35009KT 00/01 A303 RMK A01 T00-000-8  RH  095%=      5-min Rain = 0
KWT1 081905Z 35008KT 00/01 A303 RMK A01 T00-000-8  RH  095%=      5-min Rain = 0
KWT1 081906Z 35007KT 00/M01 A303 RMK A01 T00011007  RH  095%=      5-min Rain = 0.01
KWT1 081907Z 35010KT 00/M01 A303 RMK A01 T00011006  RH  095%=      5-min Rain = 0
KWT1 081908Z 35009KT 00/M01 A303 RMK A01 T00011006  RH  095%=      5-min Rain = 0
KWT1 081909Z 35009KT 00/M01 A303 RMK A01 T00011006  RH  095%=      5-min Rain = 0
KWT1 081910Z 35008KT 00/M01 A303 RMK A01 T00011006  RH  095%=      5-min Rain = 0
KWT1 081911Z 35008KT 00/M01 A303 RMK A01 T00011006  RH  095%=      5-min Rain = 0
KWT1 081912Z 35009KT 00/M01 A303 RMK A01 T00011006  RH  095%=      5-min Rain = 0
KWT1 081913Z 36009KT 00/M01 A303 RMK A01 T00011007  RH  094%=      5-min Rain = 0
KWT1 081914Z 36008KT 00/M01 A303 RMK A01 T00011007  RH  094%=      5-min Rain = 0
KWT1 081915Z 36008KT 00/M01 A303 RMK A01 T00011007  RH  094%=      5-min Rain = 0.01
KWT1 081916Z 36009KT 00/M01 A303 RMK A01 T00011007  RH  094%=      5-min Rain = 0
KWT1 081917Z 36011KT 00/M01 A303 RMK A01 T00011007  RH  094%=      5-min Rain = 0
KWT1 081918Z 36008KT 00/M01 A3029 RMK A01 T00011007  RH  094%=      5-min Rain = 0
KWT1 081919Z 35010KT 00/M01 A3029 RMK A01 T00011007  RH  094%=      5-min Rain = 0
KWT1 081920Z 35009KT 00/M01 A3029 RMK A01 T00011007  RH  094%=      5-min Rain = 0
KWT1 081921Z 35009KT 00/M01 A3029 RMK A01 T00011007  RH  094%=      5-min Rain = 0
KWT1 081922Z 35007KT 00/M01 A3029 RMK A01 T00021007  RH  094%=      5-min Rain = 0
KWT1 081923Z 35007KT 00/M00 A3029 RMK A01 T00041004  RH  094%=      5-min Rain = 0
KWT1 081924Z 34009KT 00/M00 A3029 RMK A01 T00041004  RH  094%=      5-min Rain = 0
KWT1 081925Z 34010KT 00/M01 A3029 RMK A01 T00031005  RH  094%=      5-min Rain = 0
KWT1 081926Z 34009KT 00/M01 A3029 RMK A01 T00031006  RH  094%=      5-min Rain = 0.01
KWT1 081927Z 34008KT 00/M01 A3029 RMK A01 T00031006  RH  094%=      5-min Rain = 0
KWT1 081928Z 34008KT 00/M01 A3029 RMK A01 T00031006  RH  094%=      5-min Rain = 0
KWT1 081929Z 35006KT 00/M01 A3029 RMK A01 T00031005  RH  094%=      5-min Rain = 0
KWT1 081930Z 34007KT 00/M00 A3029 RMK A01 T00041004  RH  094%=      5-min Rain = 0
KWT1 081931Z 35009KT 00/M00 A3029 RMK A01 T00041004  RH  094%=      5-min Rain = 0
KWT1 081932Z 34009KT 00/M01 A3029 RMK A01 T00041005  RH  094%=      5-min Rain = 0.01
KWT1 081933Z 34009KT 00/M01 A3029 RMK A01 T00041005  RH  094%=      5-min Rain = 0
KWT1 081934Z 34008KT 00/M01 A3029 RMK A01 T00031005  RH  094%=      5-min Rain = 0
KWT1 081935Z 34009KT 00/M01 A3029 RMK A01 T00031005  RH  094%=      5-min Rain = 0
KWT1 081936Z 35011KT 00/M01 A3029 RMK A01 T00031005  RH  095%=      5-min Rain = 0
KWT1 081937Z 35010KT 00/M01 A3029 RMK A01 T00021006  RH  095%=      5-min Rain = 0
KWT1 081938Z 35010KT 00/M01 A3029 RMK A01 T00021005  RH  095%=      5-min Rain = 0
KWT1 081939Z 34010KT 00/M01 A3029 RMK A01 T00021006  RH  095%=      5-min Rain = 0
KWT1 081940Z 34011KT 00/M01 A3029 RMK A01 T00021005  RH  095%=      5-min Rain = 0
KWT1 081941Z 33010KT 00/M01 A3029 RMK A01 T00021006  RH  095%=      5-min Rain = 0
KWT1 081942Z 35009KT 00/M01 A3029 RMK A01 T00021006  RH  095%=      5-min Rain = 0
KWT1 081943Z 35009KT 00/M01 A3029 RMK A01 T00021006  RH  095%=      5-min Rain = 0
KWT1 081944Z 35007KT 00/M01 A3029 RMK A01 T00021006  RH  094%=      5-min Rain = 0
KWT1 081945Z 35007KT 00/M01 A3029 RMK A01 T00031006  RH  094%=      5-min Rain = 0
KWT1 081946Z 35010KT 00/M01 A3029 RMK A01 T00031006  RH  094%=      5-min Rain = 0
KWT1 081947Z 36011KT 00/M01 A3029 RMK A01 T00031007  RH  093%=      5-min Rain = 0
KWT1 081948Z 35010KT 00/M01 A3028 RMK A01 T00021008  RH  093%=      5-min Rain = 0
KWT1 081949Z 35008KT 00/M01 A3028 RMK A01 T00021008  RH  093%=      5-min Rain = 0
KWT1 081950Z 36008KT 00/M01 A3028 RMK A01 T00031006  RH  094%=      5-min Rain = 0
KWT1 081951Z 36010KT 00/M01 A3028 RMK A01 T00041006  RH  093%=      5-min Rain = 0
KWT1 081952Z 35009KT 00/M01 A3028 RMK A01 T00041006  RH  093%=      5-min Rain = 0
KWT1 081953Z 35009KT 00/M01 A3028 RMK A01 T00041006  RH  093%=      5-min Rain = 0
KWT1 081954Z 35008KT 00/M01 A3028 RMK A01 T00041006  RH  093%=      5-min Rain = 0
KWT1 081955Z 34008KT 00/M01 A3028 RMK A01 T00041006  RH  093%=      5-min Rain = 0
KWT1 081956Z 35007KT 00/M01 A3028 RMK A01 T00041005  RH  093%=      5-min Rain = 0
KWT1 081957Z 34006KT 01/M01 A3028 RMK A01 T00051005  RH  093%=      5-min Rain = 0
KWT1 081958Z 34006KT 01/M00 A3028 RMK A01 T00061003  RH  094%=      5-min Rain = 0
KWT1 081959Z 35008KT 01/M00 A3028 RMK A01 T00061002  RH  094%=      5-min Rain = 0
KWT1 082000Z 34008KT 01/M00 A3028 RMK A01 T00061003  RH  094%=      5-min Rain = 0
KWT1 082001Z 35009KT 01/M00 A3028 RMK A01 T00051004  RH  093%=      5-min Rain = 0
KWT1 082002Z 35008KT 01/M01 A3028 RMK A01 T00051005  RH  093%=      5-min Rain = 0
KWT1 082003Z 35009KT 01/M01 A3028 RMK A01 T00051005  RH  093%=      5-min Rain = 0
KWT1 082004Z 35008KT 01/M01 A3028 RMK A01 T00051005  RH  093%=      5-min Rain = 0
KWT1 082005Z 35009KT 01/M01 A3028 RMK A01 T00051005  RH  093%=      5-min Rain = 0
KWT1 082006Z 36008KT 01/M01 A3028 RMK A01 T00051005  RH  093%=      5-min Rain = 0
KWT1 082007Z 35006KT 01/M00 A3028 RMK A01 T00051004  RH  093%=      5-min Rain = 0
KWT1 082008Z 34008KT 01/M00 A3028 RMK A01 T00061003  RH  094%=      5-min Rain = 0
KWT1 082009Z 34009KT 01/M00 A3028 RMK A01 T00071003  RH  093%=      5-min Rain = 0
KWT1 082010Z 33009KT 01/M00 A3028 RMK A01 T00061004  RH  093%=      5-min Rain = 0
KWT1 082011Z 34007KT 01/M01 A3028 RMK A01 T00061006  RH  092%=      5-min Rain = 0
KWT1 082012Z 34008KT 01/M01 A3028 RMK A01 T00061005  RH  092%=      5-min Rain = 0
KWT1 082013Z 35008KT 01/M01 A3028 RMK A01 T00071005  RH  092%=      5-min Rain = 0
KWT1 082014Z 34008KT 01/M01 A3027 RMK A01 T00071005  RH  092%=      5-min Rain = 0
KWT1 082015Z 35007KT 01/M01 A3027 RMK A01 T00071005  RH  092%=      5-min Rain = 0
KWT1 082016Z 36007KT 01/M01 A3027 RMK A01 T00071005  RH  092%=      5-min Rain = 0
KWT1 082017Z 35008KT 01/M01 A3027 RMK A01 T00071005  RH  092%=      5-min Rain = 0
KWT1 082018Z 35008KT 01/M01 A3027 RMK A01 T00061006  RH  091%=      5-min Rain = 0
KWT1 082019Z 34009KT 01/M01 A3027 RMK A01 T00071006  RH  091%=      5-min Rain = 0
KWT1 082020Z 34008KT 01/M01 A3027 RMK A01 T00061006  RH  092%=      5-min Rain = 0
KWT1 082021Z 34008KT 01/M01 A3027 RMK A01 T00061006  RH  092%=      5-min Rain = 0
KWT1 082022Z 34007KT 01/M01 A3027 RMK A01 T00071005  RH  092%=      5-min Rain = 0
KWT1 082023Z 34006KT 01/M00 A3027 RMK A01 T00071003  RH  093%=      5-min Rain = 0
KWT1 082024Z 33007KT 01/M00 A3027 RMK A01 T00081003  RH  093%=      5-min Rain = 0
KWT1 082025Z 34007KT 01/M00 A3027 RMK A01 T00081003  RH  092%=      5-min Rain = 0
KWT1 082026Z 35007KT 01/M00 A3027 RMK A01 T00081004  RH  092%=      5-min Rain = 0
KWT1 082027Z 00008KT 01/M01 A3027 RMK A01 T00081005  RH  091%=      5-min Rain = 0
KWT1 082028Z 36008KT 01/M01 A3027 RMK A01 T00081005  RH  091%=      5-min Rain = 0
KWT1 082029Z 34008KT 01/M01 A3027 RMK A01 T00081005  RH  091%=      5-min Rain = 0
KWT1 082030Z 35008KT 01/M00 A3027 RMK A01 T00081004  RH  092%=      5-min Rain = 0
KWT1 082031Z 35008KT 01/M00 A3027 RMK A01 T00081004  RH  091%=      5-min Rain = 0
KWT1 082032Z 35010KT 01/M01 A3027 RMK A01 T00081005  RH  091%=      5-min Rain = 0
KWT1 082033Z 36008KT 01/M01 A3027 RMK A01 T00081005  RH  091%=      5-min Rain = 0
KWT1 082034Z 35008KT 01/M01 A3027 RMK A01 T00071006  RH  091%=      5-min Rain = 0
KWT1 082035Z 00008KT 01/M01 A3027 RMK A01 T00081006  RH  091%=      5-min Rain = 0
KWT1 082036Z 35008KT 01/M00 A3027 RMK A01 T00091004  RH  091%=      5-min Rain = 0
KWT1 082037Z 36008KT 01/M01 A3027 RMK A01 T00091005  RH  090%=      5-min Rain = 0
KWT1 082038Z 36007KT 01/M01 A3027 RMK A01 T00091006  RH  090%=      5-min Rain = 0
KWT1 082039Z 36007KT 01/M00 A3027 RMK A01 T00101004  RH  091%=      5-min Rain = 0
KWT1 082040Z 00007KT 01/M00 A3028 RMK A01 T00101004  RH  091%=      5-min Rain = 0
KWT1 082041Z 01007KT 01/M00 A3027 RMK A01 T00101004  RH  091%=      5-min Rain = 0
KWT1 082042Z 00009KT 01/M00 A3027 RMK A01 T00101004  RH  090%=      5-min Rain = 0
KWT1 082043Z 00007KT 01/M01 A3027 RMK A01 T00101005  RH  090%=      5-min Rain = 0
KWT1 082044Z 00009KT 01/M01 A3027 RMK A01 T00101005  RH  090%=      5-min Rain = 0
KWT1 082045Z 36008KT 01/M01 A3027 RMK A01 T00101005  RH  090%=      5-min Rain = 0
KWT1 082046Z 36008KT 01/M01 A3027 RMK A01 T00111005  RH  090%=      5-min Rain = 0
KWT1 082047Z 36009KT 01/M01 A3027 RMK A01 T00101006  RH  089%=      5-min Rain = 0
KWT1 082048Z 36008KT 01/M01 A3027 RMK A01 T00101007  RH  089%=      5-min Rain = 0
KWT1 082049Z 35008KT 01/M01 A3027 RMK A01 T00101006  RH  089%=      5-min Rain = 0
KWT1 082050Z 35008KT 01/M01 A3027 RMK A01 T00111006  RH  089%=      5-min Rain = 0
KWT1 082051Z 36007KT 01/M01 A3027 RMK A01 T00111005  RH  089%=      5-min Rain = 0
KWT1 082052Z 00008KT 01/M00 A3027 RMK A01 T00111004  RH  090%=      5-min Rain = 0
KWT1 082053Z 35007KT 01/M01 A3027 RMK A01 T00111005  RH  089%=      5-min Rain = 0
KWT1 082054Z 01006KT 01/M00 A3027 RMK A01 T00111003  RH  090%=      5-min Rain = 0
KWT1 082055Z 01008KT 01/M00 A3027 RMK A01 T00121002  RH  090%=      5-min Rain = 0
KWT1 082056Z 00007KT 01/M00 A3027 RMK A01 T00121002  RH  090%=      5-min Rain = 0
KWT1 082057Z 02007KT 01/M00 A3027 RMK A01 T00121004  RH  090%=      5-min Rain = 0
KWT1 082058Z 00005KT 01/M00 A3027 RMK A01 T00111004  RH  089%=      5-min Rain = 0
KWT1 082059Z 36006KT 01/M00 A3027 RMK A01 T00111003  RH  090%=      5-min Rain = 0
KWT1 082100Z 35007KT 01/M00 A3027 RMK A01 T00121003  RH  090%=      5-min Rain = 0
KWT1 082101Z 34008KT 01/M00 A3027 RMK A01 T00121003  RH  090%=      5-min Rain = 0
KWT1 082102Z 34007KT 01/M00 A3027 RMK A01 T00111003  RH  090%=      5-min Rain = 0
KWT1 082103Z 35007KT 01/M00 A3027 RMK A01 T00111003  RH  090%=      5-min Rain = 0
KWT1 082104Z 35006KT 01/M00 A3027 RMK A01 T00101003  RH  091%=      5-min Rain = 0
KWT1 082105Z 36007KT 01/M00 A3027 RMK A01 T00111002  RH  091%=      5-min Rain = 0
KWT1 082106Z 35007KT 01/M00 A3027 RMK A01 T00111003  RH  091%=      5-min Rain = 0
KWT1 082107Z 35007KT 01/M00 A3027 RMK A01 T00111002  RH  091%=      5-min Rain = 0
KWT1 082108Z 34008KT 01/M00 A3027 RMK A01 T00111002  RH  091%=      5-min Rain = 0
KWT1 082109Z 35009KT 01/M00 A3027 RMK A01 T00121001  RH  091%=      5-min Rain = 0
KWT1 082110Z 35007KT 01/M00 A3027 RMK A01 T00111002  RH  091%=      5-min Rain = 0
KWT1 082111Z 35008KT 01/M00 A3027 RMK A01 T00111002  RH  091%=      5-min Rain = 0
KWT1 082112Z 35008KT 01/00 A3027 RMK A01 T001200-0  RH  091%=      5-min Rain = 0
KWT1 082113Z 35008KT 01/00 A3027 RMK A01 T001200-0  RH  091%=      5-min Rain = 0
KWT1 082114Z 35008KT 01/M00 A3027 RMK A01 T00121001  RH  091%=      5-min Rain = 0
KWT1 082115Z 35009KT 01/00 A3027 RMK A01 T001300-0  RH  091%=      5-min Rain = 0
KWT1 082116Z 00008KT 01/M00 A3027 RMK A01 T00141001  RH  090%=      5-min Rain = 0
KWT1 082117Z 36007KT 01/M00 A3027 RMK A01 T00131002  RH  090%=      5-min Rain = 0
KWT1 082118Z 36008KT 01/M00 A3027 RMK A01 T00131002  RH  090%=      5-min Rain = 0
KWT1 082119Z 35008KT 01/M00 A3027 RMK A01 T00131001  RH  090%=      5-min Rain = 0
KWT1 082120Z 34007KT 01/M00 A3027 RMK A01 T00141002  RH  089%=      5-min Rain = 0
KWT1 082121Z 34006KT 01/M00 A3027 RMK A01 T00141002  RH  090%=      5-min Rain = 0
KWT1 082122Z 36006KT 01/00 A3027 RMK A01 T001400-0  RH  090%=      5-min Rain = 0
KWT1 082123Z 36007KT 02/00 A3027 RMK A01 T00150001  RH  090%=      5-min Rain = 0
KWT1 082124Z 35006KT 02/00 A3027 RMK A01 T00160001  RH  090%=      5-min Rain = 0
KWT1 082125Z 35004KT 02/00 A3027 RMK A01 T001600-0  RH  089%=      5-min Rain = 0
KWT1 082126Z 35004KT 02/00 A3027 RMK A01 T00170002  RH  090%=      5-min Rain = 0
KWT1 082127Z 34006KT 02/01 A3027 RMK A01 T00190005  RH  090%=      5-min Rain = 0
KWT1 082128Z 34005KT 02/00 A3027 RMK A01 T00190004  RH  090%=      5-min Rain = 0
KWT1 082129Z 35007KT 02/00 A3027 RMK A01 T00190003  RH  089%=      5-min Rain = 0
KWT1 082130Z 34006KT 02/00 A3027 RMK A01 T00180001  RH  089%=      5-min Rain = 0
KWT1 082131Z 00007KT 02/00 A3027 RMK A01 T00170000  RH  088%=      5-min Rain = 0
KWT1 082132Z 35006KT 02/M00 A3027 RMK A01 T00161002  RH  088%=      5-min Rain = 0
KWT1 082133Z 35007KT 02/M00 A3027 RMK A01 T00151003  RH  088%=      5-min Rain = 0
KWT1 082134Z 35007KT 02/M00 A3027 RMK A01 T00151003  RH  088%=      5-min Rain = 0
KWT1 082135Z 00006KT 02/M00 A3027 RMK A01 T00151002  RH  089%=      5-min Rain = 0
KWT1 082136Z 35006KT 02/M00 A3027 RMK A01 T00151001  RH  089%=      5-min Rain = 0
KWT1 082137Z 35006KT 02/00 A3027 RMK A01 T00160001  RH  090%=      5-min Rain = 0
KWT1 082138Z 35008KT 02/00 A3027 RMK A01 T00160001  RH  090%=      5-min Rain = 0
KWT1 082139Z 36008KT 02/M00 A3027 RMK A01 T00151001  RH  089%=      5-min Rain = 0
KWT1 082140Z 36008KT 02/M00 A3027 RMK A01 T00151001  RH  089%=      5-min Rain = 0
KWT1 082141Z 35008KT 02/00 A3027 RMK A01 T001500-0  RH  090%=      5-min Rain = 0
KWT1 082142Z 36008KT 01/M00 A3027 RMK A01 T00141001  RH  090%=      5-min Rain = 0
KWT1 082143Z 00008KT 01/M00 A3027 RMK A01 T00141003  RH  089%=      5-min Rain = 0
KWT1 082144Z 00007KT 01/M00 A3027 RMK A01 T00131003  RH  089%=      5-min Rain = 0
KWT1 082145Z 36008KT 01/M00 A3027 RMK A01 T00131003  RH  089%=      5-min Rain = 0
KWT1 082146Z 35008KT 01/M00 A3027 RMK A01 T00131003  RH  089%=      5-min Rain = 0
KWT1 082147Z 35008KT 01/M00 A3027 RMK A01 T00141001  RH  090%=      5-min Rain = 0
KWT1 082148Z 36009KT 01/M00 A3027 RMK A01 T00141001  RH  090%=      5-min Rain = 0
KWT1 082149Z 34008KT 01/M00 A3027 RMK A01 T00141002  RH  089%=      5-min Rain = 0
KWT1 082150Z 34007KT 01/M00 A3027 RMK A01 T00131002  RH  090%=      5-min Rain = 0
KWT1 082151Z 35006KT 01/00 A3027 RMK A01 T00140000  RH  091%=      5-min Rain = 0
KWT1 082152Z 00007KT 02/00 A3027 RMK A01 T00150002  RH  091%=      5-min Rain = 0
KWT1 082153Z 00007KT 02/00 A3027 RMK A01 T00150001  RH  091%=      5-min Rain = 0
KWT1 082154Z 36007KT 02/00 A3027 RMK A01 T00150001  RH  090%=      5-min Rain = 0
KWT1 082155Z 35007KT 02/00 A3027 RMK A01 T00150001  RH  091%=      5-min Rain = 0
KWT1 082156Z 35006KT 01/00 A3027 RMK A01 T00140000  RH  090%=      5-min Rain = 0
KWT1 082157Z 36007KT 01/M00 A3027 RMK A01 T00141001  RH  090%=      5-min Rain = 0
KWT1 082158Z 36006KT 01/M00 A3027 RMK A01 T00131002  RH  090%=      5-min Rain = 0
KWT1 082159Z 35006KT 01/00 A3027 RMK A01 T00140000  RH  091%=      5-min Rain = 0
KWT1 082200Z 34007KT 01/00 A3027 RMK A01 T00140001  RH  091%=      5-min Rain = 0
KWT1 082201Z 34006KT 02/00 A3027 RMK A01 T00150002  RH  091%=      5-min Rain = 0
KWT1 082202Z 34005KT 02/00 A3027 RMK A01 T00150001  RH  091%=      5-min Rain = 0
KWT1 082203Z 34007KT 02/00 A3027 RMK A01 T00150002  RH  091%=      5-min Rain = 0
KWT1 082204Z 35006KT 01/00 A3026 RMK A01 T00140000  RH  091%=      5-min Rain = 0
KWT1 082205Z 00005KT 01/00 A3026 RMK A01 T00140001  RH  091%=      5-min Rain = 0
KWT1 082206Z 36006KT 01/00 A3026 RMK A01 T00140001  RH  091%=      5-min Rain = 0
KWT1 082207Z 34004KT 01/00 A3026 RMK A01 T00140001  RH  091%=      5-min Rain = 0
KWT1 082208Z 36004KT 01/00 A3026 RMK A01 T00140001  RH  091%=      5-min Rain = 0
KWT1 082209Z 35006KT 02/00 A3026 RMK A01 T00150002  RH  091%=      5-min Rain = 0
KWT1 082210Z 35006KT 01/00 A3026 RMK A01 T00140001  RH  091%=      5-min Rain = 0
KWT1 082211Z 35007KT 01/00 A3026 RMK A01 T00140000  RH  091%=      5-min Rain = 0
KWT1 082212Z 36008KT 01/00 A3026 RMK A01 T001300-0  RH  091%=      5-min Rain = 0
KWT1 082213Z 00007KT 01/M00 A3026 RMK A01 T00131001  RH  091%=      5-min Rain = 0
KWT1 082214Z 36007KT 01/M00 A3026 RMK A01 T00131001  RH  091%=      5-min Rain = 0
KWT1 082215Z 35007KT 01/00 A3026 RMK A01 T00140001  RH  091%=      5-min Rain = 0
KWT1 082216Z 00007KT 02/00 A3026 RMK A01 T00160003  RH  091%=      5-min Rain = 0
KWT1 082217Z 00007KT 02/00 A3026 RMK A01 T00160003  RH  091%=      5-min Rain = 0
KWT1 082218Z 00006KT 02/00 A3027 RMK A01 T00160002  RH  091%=      5-min Rain = 0
KWT1 082219Z 00006KT 02/00 A3027 RMK A01 T00160003  RH  091%=      5-min Rain = 0
KWT1 082220Z 35006KT 02/00 A3027 RMK A01 T00160003  RH  091%=      5-min Rain = 0
KWT1 082221Z 00006KT 02/00 A3027 RMK A01 T00170004  RH  091%=      5-min Rain = 0
KWT1 082222Z 00006KT 02/00 A3027 RMK A01 T00160003  RH  091%=      5-min Rain = 0
KWT1 082223Z 36007KT 02/00 A3027 RMK A01 T00160003  RH  091%=      5-min Rain = 0
KWT1 082224Z 00007KT 02/00 A3027 RMK A01 T00160003  RH  091%=      5-min Rain = 0
KWT1 082225Z 35008KT 02/00 A3027 RMK A01 T00160002  RH  091%=      5-min Rain = 0
KWT1 082226Z 35008KT 02/00 A3027 RMK A01 T00150002  RH  091%=      5-min Rain = 0
KWT1 082227Z 36008KT 02/00 A3027 RMK A01 T00150001  RH  091%=      5-min Rain = 0
KWT1 082228Z 35006KT 02/00 A3027 RMK A01 T00150001  RH  090%=      5-min Rain = 0
KWT1 082229Z 36005KT 02/00 A3027 RMK A01 T00150002  RH  091%=      5-min Rain = 0
KWT1 082230Z 36006KT 02/00 A3026 RMK A01 T00150002  RH  091%=      5-min Rain = 0
KWT1 082231Z 36005KT 02/00 A3026 RMK A01 T00150001  RH  091%=      5-min Rain = 0
KWT1 082232Z 35005KT 01/00 A3026 RMK A01 T00140001  RH  091%=      5-min Rain = 0
KWT1 082233Z 36007KT 01/00 A3026 RMK A01 T00140000  RH  091%=      5-min Rain = 0
KWT1 082234Z 35005KT 01/00 A3026 RMK A01 T001400-0  RH  091%=      5-min Rain = 0
KWT1 082235Z 35005KT 01/00 A3027 RMK A01 T00140000  RH  091%=      5-min Rain = 0
KWT1 082236Z 34004KT 01/00 A3027 RMK A01 T00140001  RH  091%=      5-min Rain = 0
KWT1 082237Z 34005KT 01/00 A3027 RMK A01 T00140001  RH  091%=      5-min Rain = 0
KWT1 082238Z 35005KT 01/00 A3027 RMK A01 T00140000  RH  091%=      5-min Rain = 0
KWT1 082239Z 35005KT 01/00 A3027 RMK A01 T001400-0  RH  091%=      5-min Rain = 0
KWT1 082240Z 34004KT 01/00 A3027 RMK A01 T001400-0  RH  091%=      5-min Rain = 0
KWT1 082241Z 34004KT 01/00 A3027 RMK A01 T00140001  RH  091%=      5-min Rain = 0
KWT1 082242Z 34003KT 02/00 A3027 RMK A01 T00150002  RH  091%=      5-min Rain = 0
KWT1 082243Z 34003KT 02/00 A3027 RMK A01 T00160004  RH  091%=      5-min Rain = 0
KWT1 082244Z 33004KT 02/00 A3027 RMK A01 T00170004  RH  091%=      5-min Rain = 0
KWT1 082245Z 34006KT 02/00 A3027 RMK A01 T00170002  RH  090%=      5-min Rain = 0
KWT1 082246Z 33006KT 02/00 A3027 RMK A01 T00170002  RH  090%=      5-min Rain = 0
KWT1 082247Z 33007KT 02/00 A3027 RMK A01 T00180002  RH  089%=      5-min Rain = 0
KWT1 082248Z 33007KT 02/00 A3027 RMK A01 T00180000  RH  088%=      5-min Rain = 0
KWT1 082249Z 34006KT 02/00 A3027 RMK A01 T001700-0  RH  088%=      5-min Rain = 0
KWT1 082250Z 35005KT 02/M00 A3027 RMK A01 T00171001  RH  088%=      5-min Rain = 0
KWT1 082251Z 35006KT 02/00 A3027 RMK A01 T00180000  RH  088%=      5-min Rain = 0
KWT1 082252Z 35006KT 02/00 A3027 RMK A01 T00180000  RH  088%=      5-min Rain = 0
KWT1 082253Z 35007KT 02/00 A3027 RMK A01 T00190001  RH  088%=      5-min Rain = 0
KWT1 082254Z 34006KT 02/00 A3027 RMK A01 T00190001  RH  088%=      5-min Rain = 0
KWT1 082255Z 33005KT 02/00 A3027 RMK A01 T00190001  RH  088%=      5-min Rain = 0
KWT1 082256Z 35007KT 02/00 A3027 RMK A01 T00210003  RH  088%=      5-min Rain = 0
KWT1 082257Z 34006KT 02/00 A3027 RMK A01 T00210003  RH  088%=      5-min Rain = 0
KWT1 082258Z 34006KT 02/00 A3027 RMK A01 T00210003  RH  088%=      5-min Rain = 0
KWT1 082259Z 34006KT 02/01 A3027 RMK A01 T00220005  RH  088%=      5-min Rain = 0
KWT1 082300Z 34007KT 02/01 A3027 RMK A01 T00220005  RH  088%=      5-min Rain = 0
KWT1 082301Z 34006KT 02/00 A3027 RMK A01 T00220003  RH  088%=      5-min Rain = 0
KWT1 082302Z 34005KT 02/00 A3027 RMK A01 T00220004  RH  088%=      5-min Rain = 0
KWT1 082303Z 35006KT 02/01 A3027 RMK A01 T00220005  RH  089%=      5-min Rain = 0
KWT1 082304Z 34006KT 02/00 A3027 RMK A01 T00210004  RH  089%=      5-min Rain = 0
KWT1 082305Z 35005KT 02/00 A3027 RMK A01 T00210004  RH  089%=      5-min Rain = 0
KWT1 082306Z 36007KT 02/00 A3027 RMK A01 T00200004  RH  089%=      5-min Rain = 0
KWT1 082307Z 35006KT 02/00 A3027 RMK A01 T00190002  RH  089%=      5-min Rain = 0
KWT1 082308Z 35007KT 02/00 A3028 RMK A01 T00190002  RH  089%=      5-min Rain = 0
KWT1 082309Z 34007KT 02/00 A3028 RMK A01 T00180002  RH  089%=      5-min Rain = 0
KWT1 082310Z 35006KT 02/00 A3028 RMK A01 T00180002  RH  089%=      5-min Rain = 0
KWT1 082311Z 34006KT 02/00 A3028 RMK A01 T00180002  RH  089%=      5-min Rain = 0
KWT1 082312Z 34007KT 02/00 A3028 RMK A01 T00180003  RH  090%=      5-min Rain = 0
KWT1 082313Z 34007KT 02/00 A3028 RMK A01 T00190003  RH  090%=      5-min Rain = 0
KWT1 082314Z 33007KT 02/00 A3028 RMK A01 T00180003  RH  090%=      5-min Rain = 0
KWT1 082315Z 33006KT 02/00 A3028 RMK A01 T00180003  RH  089%=      5-min Rain = 0
KWT1 082316Z 32007KT 02/00 A3028 RMK A01 T00180003  RH  089%=      5-min Rain = 0
KWT1 082317Z 33006KT 02/00 A3028 RMK A01 T00190003  RH  089%=      5-min Rain = 0
KWT1 082318Z 33004KT 02/00 A3028 RMK A01 T00190003  RH  089%=      5-min Rain = 0
KWT1 082319Z 33005KT 02/00 A3028 RMK A01 T00190003  RH  089%=      5-min Rain = 0
KWT1 082320Z 33007KT 02/00 A3028 RMK A01 T00190003  RH  089%=      5-min Rain = 0
KWT1 082321Z 34006KT 02/00 A3028 RMK A01 T00190002  RH  088%=      5-min Rain = 0
KWT1 082322Z 34006KT 02/00 A3028 RMK A01 T00200003  RH  088%=      5-min Rain = 0
KWT1 082323Z 34007KT 02/00 A3028 RMK A01 T00200002  RH  088%=      5-min Rain = 0
KWT1 082324Z 34006KT 02/00 A3028 RMK A01 T00190001  RH  088%=      5-min Rain = 0
KWT1 082325Z 34007KT 02/00 A3028 RMK A01 T00190001  RH  088%=      5-min Rain = 0
KWT1 082326Z 33006KT 02/00 A3028 RMK A01 T00190000  RH  088%=      5-min Rain = 0
KWT1 082327Z 33006KT 02/00 A3028 RMK A01 T00190000  RH  088%=      5-min Rain = 0
KWT1 082328Z 34005KT 02/00 A3028 RMK A01 T00190001  RH  088%=      5-min Rain = 0
KWT1 082329Z 33005KT 02/00 A3028 RMK A01 T00180001  RH  088%=      5-min Rain = 0
KWT1 082330Z 33005KT 02/00 A3028 RMK A01 T00180001  RH  088%=      5-min Rain = 0
KWT1 082331Z 32005KT 02/00 A3028 RMK A01 T00180001  RH  088%=      5-min Rain = 0
KWT1 082332Z 33006KT 02/00 A3028 RMK A01 T00170001  RH  089%=      5-min Rain = 0
KWT1 082333Z 33007KT 02/00 A3028 RMK A01 T00180001  RH  089%=      5-min Rain = 0
KWT1 082334Z 33006KT 02/00 A3028 RMK A01 T00180000  RH  088%=      5-min Rain = 0
KWT1 082335Z 33006KT 02/00 A3028 RMK A01 T00170000  RH  088%=      5-min Rain = 0
KWT1 082336Z 33007KT 02/00 A3028 RMK A01 T00170000  RH  088%=      5-min Rain = 0
KWT1 082337Z 33006KT 02/00 A3028 RMK A01 T00170000  RH  088%=      5-min Rain = 0
KWT1 082338Z 32006KT 02/00 A3028 RMK A01 T001700-0  RH  088%=      5-min Rain = 0
KWT1 082339Z 32005KT 02/00 A3028 RMK A01 T00170000  RH  089%=      5-min Rain = 0
KWT1 082340Z 32007KT 02/00 A3028 RMK A01 T00170001  RH  089%=      5-min Rain = 0
KWT1 082341Z 32007KT 02/00 A3028 RMK A01 T00160000  RH  089%=      5-min Rain = 0
KWT1 082342Z 32006KT 02/00 A3028 RMK A01 T00170000  RH  089%=      5-min Rain = 0
KWT1 082343Z 32004KT 02/00 A3028 RMK A01 T001600-0  RH  089%=      5-min Rain = 0
KWT1 082344Z 32004KT 02/00 A3028 RMK A01 T001600-0  RH  089%=      5-min Rain = 0
KWT1 082345Z 32005KT 02/00 A3028 RMK A01 T00150000  RH  090%=      5-min Rain = 0
KWT1 082346Z 32005KT 02/00 A3028 RMK A01 T001500-0  RH  090%=      5-min Rain = 0
KWT1 082347Z 32005KT 02/00 A3028 RMK A01 T001500-0  RH  090%=      5-min Rain = 0
KWT1 082348Z 32005KT 01/M00 A3028 RMK A01 T00141001  RH  090%=      5-min Rain = 0
KWT1 082349Z 32006KT 01/M00 A3028 RMK A01 T00141002  RH  089%=      5-min Rain = 0
KWT1 082350Z 32005KT 01/M00 A3028 RMK A01 T00141002  RH  089%=      5-min Rain = 0
KWT1 082351Z 32005KT 01/M00 A3028 RMK A01 T00141003  RH  089%=      5-min Rain = 0
KWT1 082352Z 31005KT 01/M00 A3028 RMK A01 T00131003  RH  089%=      5-min Rain = 0
KWT1 082353Z 32005KT 01/M00 A3028 RMK A01 T00131003  RH  089%=      5-min Rain = 0
KWT1 082354Z 32005KT 01/M00 A3028 RMK A01 T00121004  RH  090%=      5-min Rain = 0
KWT1 082355Z 31005KT 01/M00 A3027 RMK A01 T00121003  RH  090%=      5-min Rain = 0
KWT1 082356Z 31005KT 01/M00 A3027 RMK A01 T00111003  RH  090%=      5-min Rain = 0
KWT1 082357Z 32005KT 01/M00 A3027 RMK A01 T00121003  RH  090%=      5-min Rain = 0
KWT1 082358Z 32005KT 01/M00 A3027 RMK A01 T00111004  RH  090%=      5-min Rain = 0
KWT1 082359Z 32004KT 01/M00 A3027 RMK A01 T00111004  RH  090%=      5-min Rain = 0
KWT1 090000Z 32005KT 01/M00 A3027 RMK A01 T00111004  RH  090%=      5-min Rain = 0
KWT1 090001Z 32004KT 01/M00 A3027 RMK A01 T00101004  RH  090%=      5-min Rain = 0
KWT1 090002Z 32004KT 01/M00 A3027 RMK A01 T00101004  RH  091%=      5-min Rain = 0
KWT1 090003Z 32004KT 01/M00 A3027 RMK A01 T00091004  RH  091%=      5-min Rain = 0
KWT1 090004Z 32004KT 01/M00 A3027 RMK A01 T00091004  RH  091%=      5-min Rain = 0
KWT1 090005Z 32004KT 01/M00 A3027 RMK A01 T00091004  RH  091%=      5-min Rain = 0
KWT1 090006Z 32004KT 01/M00 A3027 RMK A01 T00091004  RH  091%=      5-min Rain = 0
KWT1 090007Z 32004KT 01/M00 A3027 RMK A01 T00091004  RH  091%=      5-min Rain = 0
KWT1 090008Z 32004KT 01/M00 A3027 RMK A01 T00091004  RH  091%=      5-min Rain = 0
KWT1 090009Z 33003KT 01/M00 A3027 RMK A01 T00091004  RH  091%=      5-min Rain = 0
KWT1 090010Z 33003KT 01/M00 A3027 RMK A01 T00081004  RH  091%=      5-min Rain = 0
KWT1 090011Z 33003KT 01/M01 A3027 RMK A01 T00071005  RH  091%=      5-min Rain = 0
KWT1 090012Z 33004KT 01/M01 A3027 RMK A01 T00081005  RH  091%=      5-min Rain = 0
KWT1 090013Z 33004KT 01/M01 A3027 RMK A01 T00071005  RH  092%=      5-min Rain = 0
KWT1 090014Z 33003KT 01/M01 A3027 RMK A01 T00071005  RH  092%=      5-min Rain = 0
KWT1 090015Z 33003KT 01/M01 A3027 RMK A01 T00071005  RH  092%=      5-min Rain = 0
KWT1 090016Z 34003KT 01/M01 A3027 RMK A01 T00071005  RH  092%=      5-min Rain = 0
KWT1 090017Z 34003KT 01/M01 A3027 RMK A01 T00071005  RH  092%=      5-min Rain = 0
KWT1 090018Z 33003KT 01/M01 A3027 RMK A01 T00061005  RH  092%=      5-min Rain = 0
KWT1 090019Z 33003KT 01/M01 A3028 RMK A01 T00061005  RH  092%=      5-min Rain = 0
KWT1 090020Z 34003KT 01/M01 A3028 RMK A01 T00061005  RH  092%=      5-min Rain = 0
KWT1 090021Z 34003KT 01/M01 A3028 RMK A01 T00061005  RH  092%=      5-min Rain = 0
KWT1 090022Z 34003KT 01/M01 A3028 RMK A01 T00061005  RH  092%=      5-min Rain = 0
KWT1 090023Z 34003KT 01/M01 A3028 RMK A01 T00061005  RH  092%=      5-min Rain = 0
KWT1 090024Z 33003KT 01/M01 A3028 RMK A01 T00061005  RH  092%=      5-min Rain = 0
KWT1 090025Z 33003KT 01/M01 A3028 RMK A01 T00061005  RH  092%=      5-min Rain = 0
KWT1 090026Z 33003KT 01/M00 A3028 RMK A01 T00071004  RH  092%=      5-min Rain = 0
KWT1 090027Z 34003KT 01/M00 A3028 RMK A01 T00071004  RH  092%=      5-min Rain = 0
KWT1 090028Z 01002KT 01/M00 A3028 RMK A01 T00071004  RH  092%=      5-min Rain = 0
KWT1 090029Z 04002KT 01/M01 A3028 RMK A01 T00061005  RH  092%=      5-min Rain = 0
KWT1 090030Z 04003KT 01/M01 A3028 RMK A01 T00051005  RH  093%=      5-min Rain = 0
KWT1 090031Z 03003KT 01/M01 A3028 RMK A01 T00051005  RH  093%=      5-min Rain = 0
KWT1 090032Z 02002KT 01/M00 A3028 RMK A01 T00051004  RH  093%=      5-min Rain = 0
KWT1 090033Z 02002KT 01/M00 A3028 RMK A01 T00051004  RH  094%=      5-min Rain = 0
KWT1 090034Z 02001KT 01/M00 A3028 RMK A01 T00051004  RH  094%=      5-min Rain = 0
KWT1 090035Z 35001KT 01/M00 A3028 RMK A01 T00051004  RH  094%=      5-min Rain = 0
KWT1 090036Z 35002KT 01/M00 A3028 RMK A01 T00051004  RH  094%=      5-min Rain = 0
KWT1 090037Z 35002KT 01/M00 A3028 RMK A01 T00051003  RH  094%=      5-min Rain = 0
KWT1 090038Z 35002KT 01/M00 A3029 RMK A01 T00051003  RH  094%=      5-min Rain = 0
KWT1 090039Z 36002KT 01/M00 A3029 RMK A01 T00051003  RH  095%=      5-min Rain = 0
KWT1 090040Z 36002KT 01/M00 A3029 RMK A01 T00051003  RH  094%=      5-min Rain = 0
KWT1 090041Z 35002KT 01/M00 A3029 RMK A01 T00051004  RH  094%=      5-min Rain = 0
KWT1 090042Z 35002KT 01/M00 A3029 RMK A01 T00051003  RH  094%=      5-min Rain = 0
KWT1 090043Z 34002KT 00/M01 A3029 RMK A01 T00041005  RH  094%=      5-min Rain = 0
KWT1 090044Z 34002KT 00/M01 A3029 RMK A01 T00031005  RH  094%=      5-min Rain = 0
KWT1 090045Z 34002KT 00/M01 A3029 RMK A01 T00031006  RH  094%=      5-min Rain = 0
KWT1 090046Z 34002KT 00/M01 A3029 RMK A01 T00031005  RH  094%=      5-min Rain = 0
KWT1 090047Z 33002KT 00/M01 A3029 RMK A01 T00021006  RH  094%=      5-min Rain = 0
KWT1 090048Z 32002KT 00/M01 A3029 RMK A01 T00021006  RH  094%=      5-min Rain = 0
KWT1 090049Z 32002KT 00/M01 A3029 RMK A01 T00021006  RH  095%=      5-min Rain = 0
KWT1 090050Z 33002KT 00/M01 A3029 RMK A01 T00021006  RH  095%=      5-min Rain = 0
KWT1 090051Z 32002KT 00/M01 A3029 RMK A01 T00021005  RH  095%=      5-min Rain = 0
KWT1 090052Z 32002KT 00/M01 A3029 RMK A01 T00021005  RH  095%=      5-min Rain = 0
KWT1 090053Z 32002KT 00/M01 A3029 RMK A01 T00021005  RH  095%=      5-min Rain = 0
KWT1 090054Z 31002KT 00/M01 A3029 RMK A01 T00021005  RH  095%=      5-min Rain = 0
KWT1 090055Z 31002KT 00/M01 A3029 RMK A01 T00021005  RH  095%=      5-min Rain = 0
KWT1 090056Z 31003KT 00/M01 A3029 RMK A01 T00021005  RH  095%=      5-min Rain = 0
KWT1 090057Z 31003KT 00/M01 A3029 RMK A01 T00021005  RH  095%=      5-min Rain = 0
KWT1 090058Z 31003KT 00/M00 A3029 RMK A01 T00021004  RH  095%=      5-min Rain = 0
KWT1 090059Z 31003KT 00/M00 A3029 RMK A01 T00021004  RH  095%=      5-min Rain = 0
KWT1 090100Z 31004KT 00/M00 A3029 RMK A01 T00021004  RH  095%=      5-min Rain = 0
KWT1 090101Z 31003KT 00/M00 A3029 RMK A01 T00031004  RH  095%=      5-min Rain = 0
KWT1 090102Z 31003KT 00/M01 A3029 RMK A01 T00021005  RH  095%=      5-min Rain = 0
KWT1 090103Z 31003KT 00/M01 A3029 RMK A01 T00021005  RH  095%=      5-min Rain = 0
KWT1 090104Z 31003KT 00/M01 A3029 RMK A01 T00021005  RH  095%=      5-min Rain = 0
KWT1 090105Z 31003KT 00/M01 A3029 RMK A01 T00021005  RH  095%=      5-min Rain = 0
KWT1 090106Z 31004KT 00/M01 A3029 RMK A01 T00021005  RH  095%=      5-min Rain = 0
KWT1 090107Z 31004KT 00/M01 A3029 RMK A01 T00021005  RH  095%=      5-min Rain = 0
KWT1 090108Z 31003KT 00/M01 A3029 RMK A01 T00021005  RH  095%=      5-min Rain = 0
KWT1 090109Z 31003KT 00/M01 A3029 RMK A01 T00021005  RH  095%=      5-min Rain = 0
KWT1 090110Z 32003KT 00/M01 A3029 RMK A01 T00011006  RH  095%=      5-min Rain = 0
KWT1 090111Z 32003KT 00/M01 A3029 RMK A01 T00011006  RH  095%=      5-min Rain = 0
KWT1 090112Z 32003KT 00/M01 A3029 RMK A01 T00011006  RH  095%=      5-min Rain = 0
KWT1 090113Z 32003KT 00/M01 A3029 RMK A01 T00011006  RH  095%=      5-min Rain = 0
KWT1 090114Z 32003KT 00/M01 A3029 RMK A01 T00021005  RH  095%=      5-min Rain = 0
KWT1 090115Z 32003KT 00/M01 A3029 RMK A01 T00011006  RH  095%=      5-min Rain = 0
KWT1 090116Z 32003KT 00/M01 A3029 RMK A01 T00011006  RH  095%=      5-min Rain = 0
KWT1 090117Z 32003KT 00/M01 A3029 RMK A01 T00011006  RH  095%=      5-min Rain = 0
KWT1 090118Z 31003KT 00/M01 A303 RMK A01 T00011006  RH  095%=      5-min Rain = 0
KWT1 090119Z 32003KT 00/M01 A303 RMK A01 T00011006  RH  095%=      5-min Rain = 0
KWT1 090120Z 32003KT 00/01 A303 RMK A01 T000000-7  RH  095%=      5-min Rain = 0
KWT1 090121Z 33003KT 00/01 A303 RMK A01 T00-000-7  RH  095%=      5-min Rain = 0
KWT1 090122Z 33003KT 00/01 A303 RMK A01 T00-000-7  RH  095%=      5-min Rain = 0
KWT1 090123Z 33003KT M00/M01 A303 RMK A01 T10011007  RH  095%=      5-min Rain = 0
KWT1 090124Z 33003KT 00/01 A303 RMK A01 T00-000-7  RH  095%=      5-min Rain = 0
KWT1 090125Z 33003KT M00/M01 A303 RMK A01 T10011007  RH  095%=      5-min Rain = 0
KWT1 090126Z 33003KT M00/M01 A3029 RMK A01 T10011008  RH  095%=      5-min Rain = 0
KWT1 090127Z 33003KT M00/M01 A3029 RMK A01 T10011008  RH  096%=      5-min Rain = 0
KWT1 090128Z 33004KT M00/M01 A3029 RMK A01 T10011007  RH  096%=      5-min Rain = 0
KWT1 090129Z 32003KT M00/M01 A3029 RMK A01 T10011007  RH  096%=      5-min Rain = 0
KWT1 090130Z 32003KT M00/M01 A3029 RMK A01 T10011007  RH  096%=      5-min Rain = 0
KWT1 090131Z 31003KT M00/M01 A3029 RMK A01 T10021008  RH  096%=      5-min Rain = 0
KWT1 090132Z 31003KT M00/M01 A3029 RMK A01 T10021007  RH  096%=      5-min Rain = 0
KWT1 090133Z 30004KT M00/M01 A3029 RMK A01 T10021008  RH  096%=      5-min Rain = 0
KWT1 090134Z 30004KT M00/M01 A303 RMK A01 T10021008  RH  096%=      5-min Rain = 0
KWT1 090135Z 30004KT M00/M01 A303 RMK A01 T10031009  RH  096%=      5-min Rain = 0
KWT1 090136Z 30005KT M00/M01 A303 RMK A01 T10041010  RH  096%=      5-min Rain = 0
KWT1 090137Z 30006KT M00/M01 A303 RMK A01 T10041010  RH  096%=      5-min Rain = 0
KWT1 090138Z 30006KT M00/M01 A303 RMK A01 T10041010  RH  096%=      5-min Rain = 0
KWT1 090139Z 29007KT M00/M01 A3029 RMK A01 T10041009  RH  096%=      5-min Rain = 0
KWT1 090140Z 29007KT M00/M01 A3029 RMK A01 T10031009  RH  096%=      5-min Rain = 0
KWT1 090141Z 29007KT M00/M01 A3029 RMK A01 T10031008  RH  096%=      5-min Rain = 0
KWT1 090142Z 29007KT M00/M01 A3029 RMK A01 T10021007  RH  096%=      5-min Rain = 0
KWT1 090143Z 29006KT M00/M01 A3029 RMK A01 T10011007  RH  096%=      5-min Rain = 0
KWT1 090144Z 29006KT M00/M01 A3029 RMK A01 T10011007  RH  096%=      5-min Rain = 0
KWT1 090145Z 29006KT M00/M01 A3029 RMK A01 T10011007  RH  096%=      5-min Rain = 0
KWT1 090146Z 30006KT 00/01 A3029 RMK A01 T00-000-7  RH  096%=      5-min Rain = 0
KWT1 090147Z 30006KT 00/01 A3029 RMK A01 T00-000-7  RH  095%=      5-min Rain = 0
KWT1 090148Z 29006KT 00/01 A3029 RMK A01 T00-000-7  RH  095%=      5-min Rain = 0
KWT1 090149Z 30006KT 00/01 A3029 RMK A01 T000000-7  RH  095%=      5-min Rain = 0
KWT1 090150Z 29006KT 00/01 A3029 RMK A01 T000000-7  RH  095%=      5-min Rain = 0
KWT1 090151Z 29006KT 00/01 A3029 RMK A01 T000000-7  RH  095%=      5-min Rain = 0
KWT1 090152Z 29006KT 00/M01 A3029 RMK A01 T00011007  RH  095%=      5-min Rain = 0
KWT1 090153Z 29006KT 00/M01 A3029 RMK A01 T00011007  RH  095%=      5-min Rain = 0
KWT1 090154Z 30007KT 00/M01 A3029 RMK A01 T00011007  RH  094%=      5-min Rain = 0
KWT1 090155Z 30006KT 00/M01 A3029 RMK A01 T00011007  RH  094%=      5-min Rain = 0
KWT1 090156Z 30006KT 00/M01 A3029 RMK A01 T00011007  RH  094%=      5-min Rain = 0
KWT1 090157Z 30006KT 00/M01 A3029 RMK A01 T00011007  RH  094%=      5-min Rain = 0
KWT1 090158Z 30006KT 00/M01 A3029 RMK A01 T00011007  RH  094%=      5-min Rain = 0
KWT1 090159Z 30006KT 00/M01 A3029 RMK A01 T00011008  RH  094%=      5-min Rain = 0
KWT1 090200Z 30007KT 00/M01 A3029 RMK A01 T00011008  RH  094%=      5-min Rain = 0
KWT1 090201Z 30007KT 00/M01 A3029 RMK A01 T00011008  RH  093%=      5-min Rain = 0
KWT1 090202Z 30007KT 00/M01 A3029 RMK A01 T00021008  RH  093%=      5-min Rain = 0
KWT1 090203Z 30007KT 00/M01 A3029 RMK A01 T00021008  RH  093%=      5-min Rain = 0
KWT1 090204Z 30006KT 00/M01 A3029 RMK A01 T00021008  RH  093%=      5-min Rain = 0
KWT1 090205Z 30006KT 00/M01 A3029 RMK A01 T00021008  RH  093%=      5-min Rain = 0
KWT1 090206Z 30006KT 00/M01 A3029 RMK A01 T00021009  RH  093%=      5-min Rain = 0
KWT1 090207Z 30006KT 00/M01 A3029 RMK A01 T00021008  RH  093%=      5-min Rain = 0
KWT1 090208Z 30006KT 00/M01 A3029 RMK A01 T00021009  RH  093%=      5-min Rain = 0
KWT1 090209Z 30006KT 00/M01 A3029 RMK A01 T00021009  RH  093%=      5-min Rain = 0
KWT1 090210Z 30006KT 00/M01 A3029 RMK A01 T00011009  RH  093%=      5-min Rain = 0
KWT1 090211Z 30006KT 00/M01 A303 RMK A01 T00011010  RH  093%=      5-min Rain = 0
KWT1 090212Z 29006KT 00/M01 A303 RMK A01 T00011009  RH  093%=      5-min Rain = 0
KWT1 090213Z 29006KT 00/M01 A303 RMK A01 T00011009  RH  093%=      5-min Rain = 0
KWT1 090214Z 30005KT 00/M01 A303 RMK A01 T00011009  RH  093%=      5-min Rain = 0
KWT1 090215Z 29005KT 00/M01 A303 RMK A01 T00011009  RH  093%=      5-min Rain = 0
KWT1 090216Z 30006KT 00/M01 A303 RMK A01 T00011009  RH  093%=      5-min Rain = 0
KWT1 090217Z 29006KT 00/M01 A303 RMK A01 T00011009  RH  093%=      5-min Rain = 0
KWT1 090218Z 29006KT 00/M01 A303 RMK A01 T00011009  RH  093%=      5-min Rain = 0
KWT1 090219Z 29006KT 00/M01 A303 RMK A01 T00011009  RH  093%=      5-min Rain = 0
KWT1 090220Z 29006KT 00/M01 A303 RMK A01 T00011009  RH  093%=      5-min Rain = 0
KWT1 090221Z 29006KT 00/01 A303 RMK A01 T000000-9  RH  093%=      5-min Rain = 0
KWT1 090222Z 29006KT 00/01 A303 RMK A01 T000000-9  RH  093%=      5-min Rain = 0
KWT1 090223Z 29006KT 00/01 A303 RMK A01 T000000-9  RH  094%=      5-min Rain = 0
KWT1 090224Z 30006KT 00/01 A303 RMK A01 T000000-9  RH  094%=      5-min Rain = 0
KWT1 090225Z 29006KT 00/01 A303 RMK A01 T000000-9  RH  094%=      5-min Rain = 0
KWT1 090226Z 30006KT 00/01 A303 RMK A01 T000000-9  RH  094%=      5-min Rain = 0
KWT1 090227Z 29006KT 00/01 A303 RMK A01 T000000-9  RH  094%=      5-min Rain = 0
KWT1 090228Z 30006KT 00/01 A303 RMK A01 T000000-9  RH  094%=      5-min Rain = 0
KWT1 090229Z 29006KT 00/01 A303 RMK A01 T000000-9  RH  094%=      5-min Rain = 0
KWT1 090230Z 29006KT 00/01 A303 RMK A01 T000000-9  RH  094%=      5-min Rain = 0
KWT1 090231Z 29006KT 00/01 A3031 RMK A01 T000000-9  RH  094%=      5-min Rain = 0
KWT1 090232Z 29006KT 00/01 A3031 RMK A01 T00-000-9  RH  094%=      5-min Rain = 0
KWT1 090233Z 29006KT M00/M01 A3031 RMK A01 T10011010  RH  094%=      5-min Rain = 0
KWT1 090234Z 29006KT 00/01 A3031 RMK A01 T00-00-10  RH  094%=      5-min Rain = 0
KWT1 090235Z 29006KT 00/01 A3031 RMK A01 T00-00-10  RH  094%=      5-min Rain = 0
KWT1 090236Z 29006KT 00/01 A3031 RMK A01 T00-000-9  RH  094%=      5-min Rain = 0
KWT1 090237Z 29006KT 00/01 A3031 RMK A01 T00-00-10  RH  093%=      5-min Rain = 0
KWT1 090238Z 29006KT 00/01 A3031 RMK A01 T00-00-10  RH  093%=      5-min Rain = 0
KWT1 090239Z 29006KT M00/M01 A3031 RMK A01 T10011010  RH  093%=      5-min Rain = 0
KWT1 090240Z 29006KT M00/M01 A3031 RMK A01 T10011011  RH  093%=      5-min Rain = 0
KWT1 090241Z 29006KT M00/M01 A3031 RMK A01 T10011011  RH  093%=      5-min Rain = 0
KWT1 090242Z 29006KT M00/M01 A3031 RMK A01 T10011011  RH  093%=      5-min Rain = 0
KWT1 090243Z 29006KT M00/M01 A3031 RMK A01 T10021011  RH  093%=      5-min Rain = 0
KWT1 090244Z 29006KT M00/M01 A3031 RMK A01 T10021011  RH  093%=      5-min Rain = 0
KWT1 090245Z 29006KT M00/M01 A3031 RMK A01 T10021011  RH  093%=      5-min Rain = 0
KWT1 090246Z 29006KT M00/M01 A3031 RMK A01 T10021011  RH  093%=      5-min Rain = 0
KWT1 090247Z 29005KT M00/M01 A3031 RMK A01 T10021011  RH  093%=      5-min Rain = 0
KWT1 090248Z 29005KT M00/M01 A3031 RMK A01 T10021011  RH  093%=      5-min Rain = 0
KWT1 090249Z 29005KT M00/M01 A3031 RMK A01 T10021012  RH  093%=      5-min Rain = 0
KWT1 090250Z 29005KT M00/M01 A3031 RMK A01 T10021012  RH  093%=      5-min Rain = 0
KWT1 090251Z 29005KT M00/M01 A3031 RMK A01 T10031012  RH  093%=      5-min Rain = 0
KWT1 090252Z 29005KT M00/M01 A3031 RMK A01 T10031013  RH  093%=      5-min Rain = 0
KWT1 090253Z 29005KT M00/M01 A3031 RMK A01 T10041013  RH  093%=      5-min Rain = 0
KWT1 090254Z 29005KT M00/M01 A3031 RMK A01 T10041013  RH  093%=      5-min Rain = 0
KWT1 090255Z 29005KT M00/M01 A3031 RMK A01 T10041013  RH  094%=      5-min Rain = 0
KWT1 090256Z 29005KT M00/M01 A3031 RMK A01 T10041013  RH  094%=      5-min Rain = 0
KWT1 090257Z 29005KT M00/M01 A3031 RMK A01 T10041013  RH  094%=      5-min Rain = 0
KWT1 090258Z 29005KT M00/M01 A3031 RMK A01 T10041013  RH  094%=      5-min Rain = 0
KWT1 090259Z 30005KT M00/M01 A3031 RMK A01 T10041012  RH  094%=      5-min Rain = 0
KWT1 090300Z 30004KT M00/M01 A3031 RMK A01 T10041012  RH  094%=      5-min Rain = 0
KWT1 090301Z 30004KT M00/M01 A3031 RMK A01 T10041012  RH  094%=      5-min Rain = 0
KWT1 090302Z 29004KT M00/M01 A3031 RMK A01 T10041012  RH  094%=      5-min Rain = 0
KWT1 090303Z 29004KT M00/M01 A3031 RMK A01 T10041012  RH  094%=      5-min Rain = 0
KWT1 090304Z 29004KT M00/M01 A3031 RMK A01 T10041012  RH  094%=      5-min Rain = 0
KWT1 090305Z 29004KT M00/M01 A3031 RMK A01 T10041012  RH  094%=      5-min Rain = 0
KWT1 090306Z 29004KT M01/M01 A3031 RMK A01 T10051013  RH  094%=      5-min Rain = 0
KWT1 090307Z 29004KT M01/M01 A3031 RMK A01 T10051013  RH  094%=      5-min Rain = 0
KWT1 090308Z 29004KT M01/M01 A3031 RMK A01 T10051013  RH  094%=      5-min Rain = 0
KWT1 090309Z 30004KT M01/M01 A3031 RMK A01 T10051013  RH  095%=      5-min Rain = 0
KWT1 090310Z 29004KT M01/M01 A3031 RMK A01 T10051013  RH  095%=      5-min Rain = 0
KWT1 090311Z 30004KT M01/M01 A3031 RMK A01 T10051013  RH  095%=      5-min Rain = 0
KWT1 090312Z 30004KT M01/M01 A3031 RMK A01 T10051013  RH  095%=      5-min Rain = 0
KWT1 090313Z 30004KT M01/M01 A3031 RMK A01 T10051013  RH  095%=      5-min Rain = 0
KWT1 090314Z 30004KT M01/M01 A3031 RMK A01 T10061013  RH  095%=      5-min Rain = 0
KWT1 090315Z 30004KT M01/M01 A3031 RMK A01 T10061014  RH  095%=      5-min Rain = 0
KWT1 090316Z 30004KT M01/M01 A3031 RMK A01 T10061014  RH  095%=      5-min Rain = 0
KWT1 090317Z 30004KT M01/M01 A3031 RMK A01 T10061013  RH  095%=      5-min Rain = 0
KWT1 090318Z 30004KT M01/M01 A3031 RMK A01 T10071014  RH  095%=      5-min Rain = 0
KWT1 090319Z 30004KT M01/M01 A3031 RMK A01 T10071014  RH  095%=      5-min Rain = 0
KWT1 090320Z 30004KT M01/M01 A3031 RMK A01 T10071014  RH  095%=      5-min Rain = 0
KWT1 090321Z 30005KT M01/M01 A3031 RMK A01 T10071014  RH  095%=      5-min Rain = 0
KWT1 090322Z 30005KT M01/M02 A3031 RMK A01 T10081015  RH  095%=      5-min Rain = 0
KWT1 090323Z 30005KT M01/M02 A3031 RMK A01 T10081015  RH  095%=      5-min Rain = 0
KWT1 090324Z 30005KT M01/M02 A3031 RMK A01 T10081015  RH  095%=      5-min Rain = 0
KWT1 090325Z 30006KT M01/M02 A3031 RMK A01 T10081015  RH  095%=      5-min Rain = 0
KWT1 090326Z 30006KT M01/M01 A3031 RMK A01 T10081014  RH  096%=      5-min Rain = 0
KWT1 090327Z 30006KT M01/M01 A3031 RMK A01 T10081014  RH  096%=      5-min Rain = 0
KWT1 090328Z 30006KT M01/M01 A3031 RMK A01 T10081014  RH  096%=      5-min Rain = 0
KWT1 090329Z 29006KT M01/M01 A3031 RMK A01 T10071013  RH  096%=      5-min Rain = 0
KWT1 090330Z 29006KT M01/M01 A3031 RMK A01 T10071013  RH  096%=      5-min Rain = 0
KWT1 090331Z 30006KT M01/M01 A3031 RMK A01 T10071013  RH  096%=      5-min Rain = 0
KWT1 090332Z 29006KT M01/M01 A3031 RMK A01 T10071012  RH  096%=      5-min Rain = 0
KWT1 090333Z 30007KT M01/M01 A3031 RMK A01 T10061012  RH  096%=      5-min Rain = 0
KWT1 090334Z 30006KT M01/M01 A3031 RMK A01 T10061012  RH  096%=      5-min Rain = 0
KWT1 090335Z 30006KT M01/M01 A3031 RMK A01 T10061012  RH  096%=      5-min Rain = 0
KWT1 090336Z 30006KT M01/M01 A3031 RMK A01 T10061012  RH  096%=      5-min Rain = 0
KWT1 090337Z 30006KT M01/M01 A3031 RMK A01 T10051012  RH  095%=      5-min Rain = 0
KWT1 090338Z 30006KT M01/M01 A3031 RMK A01 T10051012  RH  095%=      5-min Rain = 0
KWT1 090339Z 30006KT M01/M01 A3031 RMK A01 T10061012  RH  095%=      5-min Rain = 0
KWT1 090340Z 29006KT M01/M01 A3031 RMK A01 T10051012  RH  095%=      5-min Rain = 0
KWT1 090341Z 29006KT M01/M01 A3031 RMK A01 T10051012  RH  095%=      5-min Rain = 0
KWT1 090342Z 30006KT M01/M01 A3031 RMK A01 T10051012  RH  095%=      5-min Rain = 0
KWT1 090343Z 30006KT M01/M01 A3031 RMK A01 T10061013  RH  095%=      5-min Rain = 0
KWT1 090344Z 29005KT M01/M01 A3031 RMK A01 T10051012  RH  095%=      5-min Rain = 0
KWT1 090345Z 29005KT M01/M01 A3031 RMK A01 T10051012  RH  095%=      5-min Rain = 0
KWT1 090346Z 29005KT M01/M01 A3031 RMK A01 T10051013  RH  095%=      5-min Rain = 0
KWT1 090347Z 29005KT M01/M01 A3031 RMK A01 T10061013  RH  095%=      5-min Rain = 0
KWT1 090348Z 29005KT M01/M01 A3031 RMK A01 T10061013  RH  095%=      5-min Rain = 0
KWT1 090349Z 29005KT M01/M01 A3031 RMK A01 T10061013  RH  095%=      5-min Rain = 0
KWT1 090350Z 29005KT M01/M01 A3031 RMK A01 T10061014  RH  095%=      5-min Rain = 0
KWT1 090351Z 29005KT M01/M01 A3031 RMK A01 T10061014  RH  095%=      5-min Rain = 0
KWT1 090352Z 30005KT M01/M01 A3032 RMK A01 T10071014  RH  095%=      5-min Rain = 0
KWT1 090353Z 30005KT M01/M01 A3031 RMK A01 T10071014  RH  095%=      5-min Rain = 0
KWT1 090354Z 30005KT M01/M01 A3031 RMK A01 T10071014  RH  095%=      5-min Rain = 0
KWT1 090355Z 30004KT M01/M01 A3031 RMK A01 T10071014  RH  095%=      5-min Rain = 0
KWT1 090356Z 29005KT M01/M01 A3031 RMK A01 T10071013  RH  095%=      5-min Rain = 0
KWT1 090357Z 29005KT M01/M01 A3031 RMK A01 T10071014  RH  095%=      5-min Rain = 0
KWT1 090358Z 29005KT M01/M01 A3031 RMK A01 T10071014  RH  095%=      5-min Rain = 0
KWT1 090359Z 29006KT M01/M01 A3032 RMK A01 T10071014  RH  095%=      5-min Rain = 0
KWT1 090400Z 29006KT M01/M01 A3031 RMK A01 T10071014  RH  095%=      5-min Rain = 0
KWT1 090401Z 30005KT M01/M01 A3031 RMK A01 T10081014  RH  095%=      5-min Rain = 0
KWT1 090402Z 30005KT M01/M01 A3031 RMK A01 T10081014  RH  095%=      5-min Rain = 0
KWT1 090403Z 30005KT M01/M01 A3031 RMK A01 T10071014  RH  095%=      5-min Rain = 0
KWT1 090404Z 30005KT M01/M01 A3031 RMK A01 T10071014  RH  095%=      5-min Rain = 0
KWT1 090405Z 30005KT M01/M01 A3031 RMK A01 T10071014  RH  095%=      5-min Rain = 0
KWT1 090406Z 30005KT M01/M01 A3031 RMK A01 T10071014  RH  095%=      5-min Rain = 0
KWT1 090407Z 30005KT M01/M01 A3031 RMK A01 T10071014  RH  095%=      5-min Rain = 0
KWT1 090408Z 30004KT M01/M01 A3031 RMK A01 T10071014  RH  096%=      5-min Rain = 0
KWT1 090409Z 30004KT M01/M01 A3031 RMK A01 T10081014  RH  096%=      5-min Rain = 0
KWT1 090410Z 30004KT M01/M01 A3031 RMK A01 T10081014  RH  096%=      5-min Rain = 0
KWT1 090411Z 31004KT M01/M02 A3031 RMK A01 T10081015  RH  096%=      5-min Rain = 0
KWT1 090412Z 31004KT M01/M02 A3031 RMK A01 T10081015  RH  096%=      5-min Rain = 0
KWT1 090413Z 31004KT M01/M01 A3031 RMK A01 T10081014  RH  096%=      5-min Rain = 0
KWT1 090414Z 31004KT M01/M02 A3031 RMK A01 T10091015  RH  096%=      5-min Rain = 0
KWT1 090415Z 31005KT M01/M02 A3031 RMK A01 T10091015  RH  096%=      5-min Rain = 0
KWT1 090416Z 31005KT M01/M02 A3031 RMK A01 T10081015  RH  096%=      5-min Rain = 0
KWT1 090417Z 30005KT M01/M02 A3032 RMK A01 T10091015  RH  096%=      5-min Rain = 0
KWT1 090418Z 30005KT M01/M02 A3032 RMK A01 T10091015  RH  096%=      5-min Rain = 0
KWT1 090419Z 30005KT M01/M02 A3032 RMK A01 T10091015  RH  096%=      5-min Rain = 0
KWT1 090420Z 30005KT M01/M02 A3032 RMK A01 T10091015  RH  096%=      5-min Rain = 0
KWT1 090421Z 30005KT M01/M02 A3032 RMK A01 T10091016  RH  096%=      5-min Rain = 0
KWT1 090422Z 30005KT M01/M02 A3032 RMK A01 T10101016  RH  096%=      5-min Rain = 0
KWT1 090423Z 30005KT M01/M02 A3032 RMK A01 T10091015  RH  096%=      5-min Rain = 0
KWT1 090424Z 30005KT M01/M01 A3032 RMK A01 T10081014  RH  096%=      5-min Rain = 0
KWT1 090425Z 30005KT M01/M01 A3032 RMK A01 T10081014  RH  096%=      5-min Rain = 0
KWT1 090426Z 30005KT M01/M01 A3032 RMK A01 T10081013  RH  096%=      5-min Rain = 0
KWT1 090427Z 30005KT M01/M01 A3032 RMK A01 T10081014  RH  096%=      5-min Rain = 0
KWT1 090428Z 30005KT M01/M01 A3032 RMK A01 T10081013  RH  096%=      5-min Rain = 0
KWT1 090429Z 30006KT M01/M01 A3032 RMK A01 T10081013  RH  096%=      5-min Rain = 0
KWT1 090430Z 30005KT M01/M01 A3032 RMK A01 T10071013  RH  096%=      5-min Rain = 0
KWT1 090431Z 30005KT M01/M01 A3032 RMK A01 T10071013  RH  096%=      5-min Rain = 0
KWT1 090432Z 30005KT M01/M01 A3032 RMK A01 T10071013  RH  096%=      5-min Rain = 0
KWT1 090433Z 30005KT M01/M01 A3032 RMK A01 T10061012  RH  096%=      5-min Rain = 0
KWT1 090434Z 31005KT M01/M01 A3032 RMK A01 T10061013  RH  096%=      5-min Rain = 0
KWT1 090435Z 31005KT M01/M01 A3032 RMK A01 T10061013  RH  095%=      5-min Rain = 0
KWT1 090436Z 31006KT M01/M01 A3032 RMK A01 T10061013  RH  095%=      5-min Rain = 0
KWT1 090437Z 31006KT M01/M01 A3032 RMK A01 T10061013  RH  095%=      5-min Rain = 0
KWT1 090438Z 31006KT M01/M01 A3032 RMK A01 T10061013  RH  095%=      5-min Rain = 0
KWT1 090439Z 31006KT M01/M01 A3032 RMK A01 T10071014  RH  095%=      5-min Rain = 0
KWT1 090440Z 31006KT M01/M01 A3032 RMK A01 T10071013  RH  095%=      5-min Rain = 0
KWT1 090441Z 31006KT M01/M01 A3032 RMK A01 T10071014  RH  095%=      5-min Rain = 0
KWT1 090442Z 31006KT M01/M01 A3032 RMK A01 T10071014  RH  095%=      5-min Rain = 0
KWT1 090443Z 30006KT M01/M01 A3032 RMK A01 T10081014  RH  095%=      5-min Rain = 0
KWT1 090444Z 30005KT M01/M01 A3032 RMK A01 T10081014  RH  095%=      5-min Rain = 0
KWT1 090445Z 30006KT M01/M02 A3032 RMK A01 T10081015  RH  095%=      5-min Rain = 0
KWT1 090446Z 30005KT M01/M02 A3032 RMK A01 T10081015  RH  095%=      5-min Rain = 0
KWT1 090447Z 30005KT M01/M02 A3032 RMK A01 T10081015  RH  096%=      5-min Rain = 0
KWT1 090448Z 31005KT M01/M01 A3032 RMK A01 T10081014  RH  096%=      5-min Rain = 0
KWT1 090449Z 31005KT M01/M01 A3032 RMK A01 T10081014  RH  096%=      5-min Rain = 0
KWT1 090450Z 31005KT M01/M01 A3032 RMK A01 T10081014  RH  096%=      5-min Rain = 0
KWT1 090451Z 31005KT M01/M01 A3032 RMK A01 T10081014  RH  096%=      5-min Rain = 0
KWT1 090452Z 31005KT M01/M02 A3032 RMK A01 T10091015  RH  096%=      5-min Rain = 0
KWT1 090453Z 31006KT M01/M01 A3032 RMK A01 T10091014  RH  096%=      5-min Rain = 0
KWT1 090454Z 31006KT M01/M01 A3032 RMK A01 T10091014  RH  096%=      5-min Rain = 0
KWT1 090455Z 31006KT M01/M01 A3032 RMK A01 T10091014  RH  096%=      5-min Rain = 0
KWT1 090456Z 31006KT M01/M02 A3032 RMK A01 T10091015  RH  096%=      5-min Rain = 0
KWT1 090457Z 31006KT M01/M02 A3032 RMK A01 T10101015  RH  096%=      5-min Rain = 0
KWT1 090458Z 31006KT M01/M02 A3032 RMK A01 T10091015  RH  096%=      5-min Rain = 0
KWT1 090459Z 31006KT M01/M02 A3032 RMK A01 T10101015  RH  096%=      5-min Rain = 0
KWT1 090500Z 31006KT M01/M02 A3032 RMK A01 T10101015  RH  096%=      5-min Rain = 0
KWT1 090501Z 31006KT M01/M02 A3032 RMK A01 T10101015  RH  096%=      5-min Rain = 0
KWT1 090502Z 30006KT M01/M02 A3032 RMK A01 T10101015  RH  096%=      5-min Rain = 0
KWT1 090503Z 30006KT M01/M02 A3032 RMK A01 T10101015  RH  096%=      5-min Rain = 0
KWT1 090504Z 30006KT M01/M02 A3032 RMK A01 T10101015  RH  097%=      5-min Rain = 0
KWT1 090505Z 30006KT M01/M01 A3032 RMK A01 T10101014  RH  097%=      5-min Rain = 0
KWT1 090506Z 30006KT M01/M01 A3032 RMK A01 T10091014  RH  097%=      5-min Rain = 0
KWT1 090507Z 30006KT M01/M01 A3032 RMK A01 T10091014  RH  097%=      5-min Rain = 0
KWT1 090508Z 30006KT M01/M01 A3031 RMK A01 T10091014  RH  097%=      5-min Rain = 0
KWT1 090509Z 30005KT M01/M01 A3031 RMK A01 T10091014  RH  097%=      5-min Rain = 0
KWT1 090510Z 30006KT M01/M01 A3031 RMK A01 T10091013  RH  097%=      5-min Rain = 0
KWT1 090511Z 30006KT M01/M01 A3031 RMK A01 T10091014  RH  096%=      5-min Rain = 0
KWT1 090512Z 30006KT M01/M01 A3032 RMK A01 T10091014  RH  097%=      5-min Rain = 0
KWT1 090513Z 30006KT M01/M01 A3032 RMK A01 T10081013  RH  096%=      5-min Rain = 0
KWT1 090514Z 29006KT M01/M01 A3032 RMK A01 T10081013  RH  096%=      5-min Rain = 0
KWT1 090515Z 29006KT M01/M01 A3032 RMK A01 T10081013  RH  096%=      5-min Rain = 0
KWT1 090516Z 30006KT M01/M01 A3032 RMK A01 T10081013  RH  096%=      5-min Rain = 0
KWT1 090517Z 30006KT M01/M01 A3032 RMK A01 T10081013  RH  096%=      5-min Rain = 0
KWT1 090518Z 30006KT M01/M01 A3032 RMK A01 T10081013  RH  096%=      5-min Rain = 0
KWT1 090519Z 29006KT M01/M01 A3032 RMK A01 T10081013  RH  096%=      5-min Rain = 0
KWT1 090520Z 29006KT M01/M01 A3032 RMK A01 T10081013  RH  096%=      5-min Rain = 0
KWT1 090521Z 29006KT M01/M01 A3032 RMK A01 T10081013  RH  096%=      5-min Rain = 0
KWT1 090522Z 29007KT M01/M01 A3032 RMK A01 T10081014  RH  096%=      5-min Rain = 0
KWT1 090523Z 29007KT M01/M01 A3032 RMK A01 T10071013  RH  096%=      5-min Rain = 0
KWT1 090524Z 29007KT M01/M01 A3032 RMK A01 T10081014  RH  096%=      5-min Rain = 0
KWT1 090525Z 29006KT M01/M01 A3032 RMK A01 T10081014  RH  096%=      5-min Rain = 0
KWT1 090526Z 29007KT M01/M01 A3032 RMK A01 T10081014  RH  096%=      5-min Rain = 0
KWT1 090527Z 29007KT M01/M01 A3032 RMK A01 T10071013  RH  096%=      5-min Rain = 0
KWT1 090528Z 29007KT M01/M01 A3032 RMK A01 T10071013  RH  096%=      5-min Rain = 0
KWT1 090529Z 28007KT M01/M01 A3032 RMK A01 T10071013  RH  096%=      5-min Rain = 0
KWT1 090530Z 29007KT M01/M01 A3032 RMK A01 T10081014  RH  095%=      5-min Rain = 0
KWT1 090531Z 28007KT M01/M01 A3032 RMK A01 T10081014  RH  095%=      5-min Rain = 0
KWT1 090532Z 28006KT M01/M01 A3032 RMK A01 T10081014  RH  095%=      5-min Rain = 0
KWT1 090533Z 28006KT M01/M01 A3032 RMK A01 T10081014  RH  095%=      5-min Rain = 0
KWT1 090534Z 29007KT M01/M02 A3032 RMK A01 T10081015  RH  095%=      5-min Rain = 0
KWT1 090535Z 28006KT M01/M02 A3032 RMK A01 T10081015  RH  095%=      5-min Rain = 0
KWT1 090536Z 28006KT M01/M02 A3032 RMK A01 T10081015  RH  095%=      5-min Rain = 0
KWT1 090537Z 28006KT M01/M02 A3032 RMK A01 T10091015  RH  095%=      5-min Rain = 0
KWT1 090538Z 28006KT M01/M02 A3032 RMK A01 T10091015  RH  096%=      5-min Rain = 0
KWT1 090539Z 28006KT M01/M02 A3032 RMK A01 T10091015  RH  096%=      5-min Rain = 0
KWT1 090540Z 28006KT M01/M02 A3032 RMK A01 T10101016  RH  096%=      5-min Rain = 0
KWT1 090541Z 28006KT M01/M02 A3032 RMK A01 T10101016  RH  096%=      5-min Rain = 0
KWT1 090542Z 29006KT M01/M02 A3032 RMK A01 T10091016  RH  096%=      5-min Rain = 0
KWT1 090543Z 28006KT M01/M02 A3032 RMK A01 T10091015  RH  096%=      5-min Rain = 0
KWT1 090544Z 29006KT M01/M02 A3032 RMK A01 T10091015  RH  096%=      5-min Rain = 0
KWT1 090545Z 29006KT M01/M02 A3031 RMK A01 T10091015  RH  096%=      5-min Rain = 0
KWT1 090546Z 29006KT M01/M02 A3031 RMK A01 T10091015  RH  096%=      5-min Rain = 0
KWT1 090547Z 29006KT M01/M02 A3031 RMK A01 T10091015  RH  096%=      5-min Rain = 0
KWT1 090548Z 29006KT M01/M02 A3031 RMK A01 T10101015  RH  096%=      5-min Rain = 0
KWT1 090549Z 29006KT M01/M02 A3031 RMK A01 T10091015  RH  096%=      5-min Rain = 0
KWT1 090550Z 29006KT M01/M02 A3032 RMK A01 T10091015  RH  096%=      5-min Rain = 0
KWT1 090551Z 30006KT M01/M01 A3031 RMK A01 T10081014  RH  096%=      5-min Rain = 0
KWT1 090552Z 30007KT M01/M01 A3031 RMK A01 T10081014  RH  096%=      5-min Rain = 0
KWT1 090553Z 30007KT M01/M01 A3031 RMK A01 T10081014  RH  096%=      5-min Rain = 0
KWT1 090554Z 30007KT M01/M01 A3031 RMK A01 T10071013  RH  096%=      5-min Rain = 0
KWT1 090555Z 30006KT M01/M01 A3031 RMK A01 T10071013  RH  096%=      5-min Rain = 0
KWT1 090556Z 30006KT M01/M01 A3031 RMK A01 T10071013  RH  095%=      5-min Rain = 0
KWT1 090557Z 29006KT M01/M01 A3031 RMK A01 T10071014  RH  095%=      5-min Rain = 0
KWT1 090558Z 29006KT M01/M01 A3031 RMK A01 T10071014  RH  095%=      5-min Rain = 0
KWT1 090559Z 29006KT M01/M01 A3031 RMK A01 T10061013  RH  095%=      5-min Rain = 0

Page generated in 0.0833 seconds.